Time,TemperatureF,DewpointF,PressureIn,WindDirection,WindDirectionDegrees,WindSpeedMPH,WindSpeedGustMPH,Humidity,HourlyPrecipIn,Conditions,Clouds,dailyrainin,SoftwareType,DateUTC
2013-02-20 00:00:00,46.8,41.5,29.25,West,270,0.0,3.0,82,-99.99,,,0.00,meteohub,2013-02-20 05:00:00,
2013-02-20 00:01:00,46.8,41.5,29.25,West,263,0.0,3.0,82,-99.99,,,0.00,meteohub,2013-02-20 05:01:00,
2013-02-20 00:02:00,46.8,41.5,29.25,West,264,0.0,3.0,82,-99.99,,,0.00,meteohub,2013-02-20 05:02:00,
2013-02-20 00:05:00,46.8,41.5,29.25,West,279,0.0,3.0,82,-99.99,,,0.00,meteohub,2013-02-20 05:05:00,
2013-02-20 00:06:00,46.6,41.4,29.25,West,279,0.0,3.0,82,-99.99,,,0.00,meteohub,2013-02-20 05:06:00,
2013-02-20 00:08:00,46.6,41.4,29.25,SE,138,0.0,3.0,82,-99.99,,,0.00,meteohub,2013-02-20 05:08:00,
2013-02-20 00:11:00,46.6,41.4,29.25,West,279,0.0,3.0,82,-99.99,,,0.00,meteohub,2013-02-20 05:11:00,
2013-02-20 00:13:00,46.6,41.4,29.25,West,279,0.0,3.0,82,-99.99,,,0.00,meteohub,2013-02-20 05:13:00,
2013-02-20 00:14:00,46.6,41.4,29.25,West,276,0.0,3.0,82,-99.99,,,0.00,meteohub,2013-02-20 05:14:00,
2013-02-20 00:17:00,46.6,41.4,29.25,West,276,0.0,3.0,82,-99.99,,,0.00,meteohub,2013-02-20 05:17:00,
2013-02-20 00:19:00,46.6,41.4,29.25,West,276,0.0,3.0,82,-99.99,,,0.00,meteohub,2013-02-20 05:19:00,
2013-02-20 00:20:00,46.6,41.4,29.25,West,276,0.0,3.0,82,-99.99,,,0.00,meteohub,2013-02-20 05:20:00,
2013-02-20 00:22:00,46.6,41.4,29.25,West,276,0.0,3.0,82,-99.99,,,0.00,meteohub,2013-02-20 05:22:00,
2013-02-20 00:24:00,46.6,41.4,29.25,WSW,238,0.0,3.0,82,-99.99,,,0.00,meteohub,2013-02-20 05:24:00,
2013-02-20 00:25:00,46.6,41.4,29.25,WSW,238,0.0,0.0,82,-99.99,,,0.00,meteohub,2013-02-20 05:25:00,
2013-02-20 00:26:00,46.6,41.4,29.25,WSW,238,0.0,0.0,82,-99.99,,,0.00,meteohub,2013-02-20 05:26:00,
2013-02-20 00:29:00,46.4,41.2,29.25,WSW,238,0.0,0.0,82,-99.99,,,0.00,meteohub,2013-02-20 05:29:00,
2013-02-20 00:31:00,46.4,41.2,29.22,West,261,0.0,0.0,82,-99.99,,,0.00,meteohub,2013-02-20 05:31:00,
2013-02-20 00:32:00,46.4,41.2,29.22,West,261,0.0,0.0,82,-99.99,,,0.00,meteohub,2013-02-20 05:32:00,
2013-02-20 00:34:00,46.2,41.0,29.22,West,261,0.0,0.0,82,-99.99,,,0.00,meteohub,2013-02-20 05:34:00,
2013-02-20 00:37:00,46.2,41.0,29.22,West,261,0.0,0.0,82,-99.99,,,0.00,meteohub,2013-02-20 05:37:00,
2013-02-20 00:38:00,46.2,41.0,29.22,West,261,0.0,0.0,82,-99.99,,,0.00,meteohub,2013-02-20 05:38:00,
2013-02-20 00:40:00,46.2,41.4,29.22,WNW,298,0.0,0.0,83,-99.99,,,0.00,meteohub,2013-02-20 05:40:00,
2013-02-20 00:43:00,46.0,41.2,29.22,WNW,299,0.0,0.0,83,-99.99,,,0.00,meteohub,2013-02-20 05:43:00,
2013-02-20 00:44:00,46.0,40.8,29.22,WNW,298,0.0,0.0,82,-99.99,,,0.00,meteohub,2013-02-20 05:44:00,
2013-02-20 00:46:00,46.0,40.8,29.22,WNW,298,0.0,0.0,82,-99.99,,,0.00,meteohub,2013-02-20 05:46:00,
2013-02-20 00:48:00,45.9,40.6,29.22,WNW,298,0.0,0.0,82,-99.99,,,0.00,meteohub,2013-02-20 05:48:00,
2013-02-20 00:49:00,45.9,40.6,29.22,WNW,294,0.0,0.0,82,-99.99,,,0.00,meteohub,2013-02-20 05:49:00,
2013-02-20 00:50:00,45.9,40.6,29.22,WNW,294,0.0,0.0,82,-99.99,,,0.00,meteohub,2013-02-20 05:50:00,
2013-02-20 00:51:00,45.9,40.6,29.22,WNW,294,0.0,0.0,82,-99.99,,,0.00,meteohub,2013-02-20 05:51:00,
2013-02-20 00:55:00,45.7,40.5,29.22,WNW,294,0.0,0.0,82,-99.99,,,0.00,meteohub,2013-02-20 05:55:00,
2013-02-20 00:57:00,45.9,41.0,29.22,WNW,294,0.0,0.0,83,-99.99,,,0.00,meteohub,2013-02-20 05:57:00,
2013-02-20 00:58:00,45.9,41.0,29.22,WNW,294,0.0,0.0,83,-99.99,,,0.00,meteohub,2013-02-20 05:58:00,
2013-02-20 01:01:00,45.7,40.8,29.22,WNW,294,0.0,0.0,83,-99.99,,,0.00,meteohub,2013-02-20 06:01:00,
2013-02-20 01:02:00,45.7,40.8,29.22,WNW,294,0.0,0.0,83,-99.99,,,0.00,meteohub,2013-02-20 06:02:00,
2013-02-20 01:03:00,45.7,40.8,29.22,WNW,294,0.0,0.0,83,-99.99,,,0.00,meteohub,2013-02-20 06:03:00,
2013-02-20 01:07:00,45.7,40.8,29.22,WNW,294,0.0,0.0,83,-99.99,,,0.00,meteohub,2013-02-20 06:07:00,
2013-02-20 01:08:00,45.7,40.8,29.22,WNW,294,0.0,0.0,83,-99.99,,,0.00,meteohub,2013-02-20 06:08:00,
2013-02-20 01:09:00,45.9,41.0,29.22,WNW,294,0.0,0.0,83,-99.99,,,0.00,meteohub,2013-02-20 06:09:00,
2013-02-20 01:12:00,45.9,41.0,29.22,WNW,294,0.0,0.0,83,-99.99,,,0.00,meteohub,2013-02-20 06:12:00,
2013-02-20 01:13:00,45.9,41.0,29.22,WNW,294,0.0,0.0,83,-99.99,,,0.00,meteohub,2013-02-20 06:13:00,
2013-02-20 01:14:00,45.9,41.0,29.22,WNW,294,0.0,0.0,83,-99.99,,,0.00,meteohub,2013-02-20 06:14:00,
2013-02-20 01:18:00,45.9,41.0,29.22,WNW,294,0.0,0.0,83,-99.99,,,0.00,meteohub,2013-02-20 06:18:00,
2013-02-20 01:20:00,45.9,41.0,29.22,WNW,294,0.0,0.0,83,-99.99,,,0.00,meteohub,2013-02-20 06:20:00,
2013-02-20 01:21:00,45.9,41.0,29.22,WNW,294,0.0,0.0,83,-99.99,,,0.00,meteohub,2013-02-20 06:21:00,
2013-02-20 01:24:00,45.7,40.8,29.22,WNW,294,0.0,0.0,83,-99.99,,,0.00,meteohub,2013-02-20 06:24:00,
2013-02-20 01:25:00,45.7,40.8,29.22,WNW,294,0.0,0.0,83,-99.99,,,0.00,meteohub,2013-02-20 06:25:00,
2013-02-20 01:27:00,45.7,40.8,29.22,WNW,294,0.0,0.0,83,-99.99,,,0.00,meteohub,2013-02-20 06:27:00,
2013-02-20 01:29:00,45.7,40.8,29.22,WNW,294,0.0,0.0,83,-99.99,,,0.00,meteohub,2013-02-20 06:29:00,
2013-02-20 01:31:00,45.7,40.8,29.22,WSW,249,0.0,0.0,83,-99.99,,,0.00,meteohub,2013-02-20 06:31:00,
2013-02-20 01:32:00,45.7,40.8,29.22,WSW,249,0.0,0.0,83,-99.99,,,0.00,meteohub,2013-02-20 06:32:00,
2013-02-20 01:35:00,45.9,41.0,29.22,WSW,249,0.0,0.0,83,-99.99,,,0.00,meteohub,2013-02-20 06:35:00,
2013-02-20 01:37:00,45.9,41.0,29.22,WSW,249,0.0,0.0,83,-99.99,,,0.00,meteohub,2013-02-20 06:37:00,
2013-02-20 01:39:00,45.7,40.8,29.22,WSW,249,0.0,0.0,83,-99.99,,,0.00,meteohub,2013-02-20 06:39:00,
2013-02-20 01:40:00,45.7,40.8,29.22,WSW,249,0.0,0.0,83,-99.99,,,0.00,meteohub,2013-02-20 06:40:00,
2013-02-20 01:41:00,45.7,40.8,29.22,WSW,249,0.0,0.0,83,-99.99,,,0.00,meteohub,2013-02-20 06:41:00,
2013-02-20 01:44:00,45.9,41.0,29.22,WSW,249,0.0,0.0,83,-99.99,,,0.00,meteohub,2013-02-20 06:44:00,
2013-02-20 01:45:00,45.9,41.0,29.22,WSW,249,0.0,0.0,83,-99.99,,,0.00,meteohub,2013-02-20 06:45:00,
2013-02-20 01:46:00,45.9,41.0,29.22,WSW,249,0.0,0.0,83,-99.99,,,0.00,meteohub,2013-02-20 06:46:00,
2013-02-20 01:50:00,45.9,41.0,29.22,WSW,249,0.0,0.0,83,-99.99,,,0.00,meteohub,2013-02-20 06:50:00,
2013-02-20 01:51:00,46.0,41.2,29.22,WSW,249,0.0,0.0,83,-99.99,,,0.00,meteohub,2013-02-20 06:51:00,
2013-02-20 01:52:00,46.0,41.2,29.22,WSW,249,0.0,0.0,83,-99.99,,,0.00,meteohub,2013-02-20 06:52:00,
2013-02-20 01:56:00,46.0,41.2,29.22,WSW,249,0.0,0.0,83,-99.99,,,0.00,meteohub,2013-02-20 06:56:00,
2013-02-20 01:58:00,46.0,41.2,29.22,WSW,249,0.0,0.0,83,-99.99,,,0.00,meteohub,2013-02-20 06:58:00,
2013-02-20 01:59:00,46.2,41.4,29.22,WSW,249,0.0,0.0,83,-99.99,,,0.00,meteohub,2013-02-20 06:59:00,
2013-02-20 02:02:00,46.2,41.4,29.22,WSW,249,0.0,0.0,83,-99.99,,,0.00,meteohub,2013-02-20 07:02:00,
2013-02-20 02:04:00,46.2,41.4,29.22,West,261,0.0,0.0,83,-99.99,,,0.00,meteohub,2013-02-20 07:04:00,
2013-02-20 02:07:00,46.2,41.4,29.22,NW,311,0.0,0.0,83,-99.99,,,0.00,meteohub,2013-02-20 07:07:00,
2013-02-20 02:08:00,46.2,41.4,29.22,NW,311,0.0,0.0,83,-99.99,,,0.00,meteohub,2013-02-20 07:08:00,
2013-02-20 02:10:00,46.2,41.4,29.22,WNW,284,0.0,0.0,83,-99.99,,,0.00,meteohub,2013-02-20 07:10:00,
2013-02-20 02:11:00,46.0,41.2,29.22,WNW,284,0.0,0.0,83,-99.99,,,0.00,meteohub,2013-02-20 07:11:00,
2013-02-20 02:14:00,46.0,41.2,29.22,WNW,284,0.0,0.0,83,-99.99,,,0.00,meteohub,2013-02-20 07:14:00,
2013-02-20 02:17:00,46.2,41.4,29.22,WNW,284,0.0,0.0,83,-99.99,,,0.00,meteohub,2013-02-20 07:17:00,
2013-02-20 02:19:00,46.2,41.7,29.22,WNW,284,0.0,0.0,84,-99.99,,,0.00,meteohub,2013-02-20 07:19:00,
2013-02-20 02:20:00,46.2,41.7,29.22,WNW,284,0.0,0.0,84,-99.99,,,0.00,meteohub,2013-02-20 07:20:00,
2013-02-20 02:24:00,46.2,41.4,29.22,WNW,284,0.0,0.0,83,-99.99,,,0.00,meteohub,2013-02-20 07:24:00,
2013-02-20 02:26:00,46.2,41.4,29.22,WNW,284,0.0,0.0,83,-99.99,,,0.00,meteohub,2013-02-20 07:26:00,
2013-02-20 02:27:00,46.0,41.2,29.22,WNW,284,0.0,0.0,83,-99.99,,,0.00,meteohub,2013-02-20 07:27:00,
2013-02-20 02:29:00,46.0,41.2,29.22,WNW,284,0.0,0.0,83,-99.99,,,0.00,meteohub,2013-02-20 07:29:00,
2013-02-20 02:33:00,46.0,41.2,29.22,WNW,284,0.0,0.0,83,-99.99,,,0.00,meteohub,2013-02-20 07:33:00,
2013-02-20 02:35:00,45.9,41.0,29.22,NNW,331,0.0,0.0,83,-99.99,,,0.00,meteohub,2013-02-20 07:35:00,
2013-02-20 02:39:00,45.9,41.0,29.22,WNW,297,0.0,0.0,83,-99.99,,,0.00,meteohub,2013-02-20 07:39:00,
2013-02-20 02:40:00,45.9,41.0,29.22,West,278,0.0,0.0,83,-99.99,,,0.00,meteohub,2013-02-20 07:40:00,
2013-02-20 02:42:00,45.9,41.0,29.22,WNW,294,0.0,0.0,83,-99.99,,,0.00,meteohub,2013-02-20 07:42:00,
2013-02-20 02:44:00,45.9,41.4,29.22,North,0,3.0,3.0,84,-99.99,,,0.00,meteohub,2013-02-20 07:44:00,
2013-02-20 02:46:00,45.9,41.4,29.22,NW,310,4.0,4.0,84,-99.99,,,0.00,meteohub,2013-02-20 07:46:00,
2013-02-20 02:48:00,46.0,41.5,29.22,West,278,5.0,5.0,84,-99.99,,,0.00,meteohub,2013-02-20 07:48:00,
2013-02-20 02:49:00,46.0,41.5,29.22,NNW,328,3.0,3.0,84,-99.99,,,0.00,meteohub,2013-02-20 07:49:00,
2013-02-20 02:52:00,45.9,41.4,29.22,WNW,286,0.0,3.0,84,-99.99,,,0.00,meteohub,2013-02-20 07:52:00,
2013-02-20 02:53:00,45.7,40.8,29.22,NW,325,0.0,13.0,83,-99.99,,,0.00,meteohub,2013-02-20 07:53:00,
2013-02-20 02:54:00,45.5,40.6,29.22,NW,322,0.0,13.0,83,-99.99,,,0.00,meteohub,2013-02-20 07:54:00,
2013-02-20 02:55:00,45.3,40.5,29.22,WNW,286,0.0,13.0,83,-99.99,,,0.00,meteohub,2013-02-20 07:55:00,
2013-02-20 02:59:00,45.1,40.3,29.22,WNW,300,0.0,13.0,83,-99.99,,,0.00,meteohub,2013-02-20 07:59:00,
2013-02-20 03:00:00,45.1,40.3,29.22,South,179,3.0,13.0,83,-99.99,,,0.00,meteohub,2013-02-20 08:00:00,
2013-02-20 03:01:00,45.0,40.1,29.22,West,281,5.0,13.0,83,-99.99,,,0.00,meteohub,2013-02-20 08:01:00,
2013-02-20 03:05:00,45.0,40.1,29.22,NW,308,0.0,13.0,83,-99.99,,,0.00,meteohub,2013-02-20 08:05:00,
2013-02-20 03:06:00,44.6,39.7,29.22,WNW,293,6.0,13.0,83,-99.99,,,0.00,meteohub,2013-02-20 08:06:00,
2013-02-20 03:08:00,44.4,39.6,29.22,SW,220,3.0,13.0,83,-99.99,,,0.00,meteohub,2013-02-20 08:08:00,
2013-02-20 03:11:00,44.2,39.4,29.22,WNW,283,8.0,13.0,83,-99.99,,,0.00,meteohub,2013-02-20 08:11:00,
2013-02-20 03:14:00,44.1,39.2,29.22,NNW,329,6.0,11.0,83,-99.99,,,0.00,meteohub,2013-02-20 08:14:00,
2013-02-20 03:15:00,44.1,39.2,29.22,WNW,286,0.0,11.0,83,-99.99,,,0.00,meteohub,2013-02-20 08:15:00,
2013-02-20 03:17:00,43.9,39.0,29.22,WSW,256,6.0,10.0,83,-99.99,,,0.00,meteohub,2013-02-20 08:17:00,
2013-02-20 03:18:00,43.7,38.8,29.22,West,262,0.0,10.0,83,-99.99,,,0.00,meteohub,2013-02-20 08:18:00,
2013-02-20 03:19:00,43.7,38.8,29.22,NW,306,6.0,10.0,83,-99.99,,,0.00,meteohub,2013-02-20 08:19:00,
2013-02-20 03:20:00,43.7,38.8,29.22,WNW,282,0.0,10.0,83,-99.99,,,0.00,meteohub,2013-02-20 08:20:00,
2013-02-20 03:24:00,43.5,38.7,29.22,NW,311,0.0,10.0,83,-99.99,,,0.00,meteohub,2013-02-20 08:24:00,
2013-02-20 03:25:00,43.5,38.7,29.22,WNW,286,5.0,10.0,83,-99.99,,,0.00,meteohub,2013-02-20 08:25:00,
2013-02-20 03:26:00,43.5,38.5,29.22,WSW,254,0.0,10.0,82,-99.99,,,0.00,meteohub,2013-02-20 08:26:00,
2013-02-20 03:27:00,43.5,38.5,29.22,WNW,283,5.0,10.0,82,-99.99,,,0.00,meteohub,2013-02-20 08:27:00,
2013-02-20 03:29:00,43.3,38.3,29.22,West,261,5.0,10.0,82,-99.99,,,0.00,meteohub,2013-02-20 08:29:00,
2013-02-20 03:31:00,43.3,38.3,29.22,South,170,4.0,10.0,82,-99.99,,,0.00,meteohub,2013-02-20 08:31:00,
2013-02-20 03:32:00,43.3,38.3,29.22,West,275,4.0,10.0,82,-99.99,,,0.00,meteohub,2013-02-20 08:32:00,
2013-02-20 03:34:00,43.2,38.1,29.22,SSE,160,4.0,8.0,82,-99.99,,,0.00,meteohub,2013-02-20 08:34:00,
2013-02-20 03:36:00,43.0,37.9,29.22,NW,311,2.0,8.0,82,-99.99,,,0.00,meteohub,2013-02-20 08:36:00,
2013-02-20 03:37:00,43.0,37.9,29.22,West,280,2.0,8.0,82,-99.99,,,0.00,meteohub,2013-02-20 08:37:00,
2013-02-20 03:39:00,43.0,37.6,29.22,NNW,331,0.0,8.0,81,-99.99,,,0.00,meteohub,2013-02-20 08:39:00,
2013-02-20 03:40:00,43.0,37.6,29.22,WSW,242,0.0,8.0,81,-99.99,,,0.00,meteohub,2013-02-20 08:40:00,
2013-02-20 03:41:00,43.0,37.6,29.22,West,265,0.0,8.0,81,-99.99,,,0.00,meteohub,2013-02-20 08:41:00,
2013-02-20 03:44:00,42.8,37.4,29.22,West,269,3.0,8.0,81,-99.99,,,0.00,meteohub,2013-02-20 08:44:00,
2013-02-20 03:45:00,42.8,37.4,29.25,SW,224,0.0,8.0,81,-99.99,,,0.00,meteohub,2013-02-20 08:45:00,
2013-02-20 03:48:00,42.6,37.2,29.25,NW,310,3.0,8.0,81,-99.99,,,0.00,meteohub,2013-02-20 08:48:00,
2013-02-20 03:50:00,42.4,36.7,29.25,West,269,4.0,8.0,80,-99.99,,,0.00,meteohub,2013-02-20 08:50:00,
2013-02-20 03:51:00,42.4,36.7,29.25,NNW,343,0.0,8.0,80,-99.99,,,0.00,meteohub,2013-02-20 08:51:00,
2013-02-20 03:52:00,42.3,36.5,29.25,NW,325,0.0,8.0,80,-99.99,,,0.00,meteohub,2013-02-20 08:52:00,
2013-02-20 03:55:00,42.1,36.0,29.25,WNW,284,3.0,8.0,79,-99.99,,,0.00,meteohub,2013-02-20 08:55:00,
2013-02-20 03:57:00,42.1,35.8,29.25,WNW,297,4.0,8.0,78,-99.99,,,0.00,meteohub,2013-02-20 08:57:00,
2013-02-20 04:01:00,41.7,35.1,29.25,WNW,300,3.0,8.0,77,-99.99,,,0.00,meteohub,2013-02-20 09:01:00,
2013-02-20 04:03:00,41.5,34.9,29.25,NW,325,4.0,8.0,77,-99.99,,,0.00,meteohub,2013-02-20 09:03:00,
2013-02-20 04:04:00,41.4,34.7,29.25,WNW,283,6.0,8.0,77,-99.99,,,0.00,meteohub,2013-02-20 09:04:00,
2013-02-20 04:08:00,41.0,34.0,29.25,WNW,297,3.0,8.0,76,-99.99,,,0.00,meteohub,2013-02-20 09:08:00,
2013-02-20 04:09:00,41.0,33.6,29.25,WNW,298,4.0,8.0,75,-99.99,,,0.00,meteohub,2013-02-20 09:09:00,
2013-02-20 04:10:00,40.8,33.8,29.25,WNW,295,2.0,8.0,76,-99.99,,,0.00,meteohub,2013-02-20 09:10:00,
2013-02-20 04:14:00,40.3,32.7,29.25,NW,321,4.0,9.0,74,-99.99,,,0.00,meteohub,2013-02-20 09:14:00,
2013-02-20 04:15:00,40.1,32.5,29.25,North,6,0.0,9.0,74,-99.99,,,0.00,meteohub,2013-02-20 09:15:00,
2013-02-20 04:16:00,39.9,32.0,29.25,NW,320,6.0,9.0,73,-99.99,,,0.00,meteohub,2013-02-20 09:16:00,
2013-02-20 04:18:00,39.6,31.3,29.25,WNW,291,6.0,9.0,72,-99.99,,,0.00,meteohub,2013-02-20 09:18:00,
2013-02-20 04:20:00,39.6,31.3,29.25,WNW,303,4.0,9.0,72,-99.99,,,0.00,meteohub,2013-02-20 09:20:00,
2013-02-20 04:21:00,39.4,31.1,29.25,South,181,2.0,9.0,72,-99.99,,,0.00,meteohub,2013-02-20 09:21:00,
2013-02-20 04:24:00,39.0,30.4,29.25,West,275,6.0,9.0,71,-99.99,,,0.00,meteohub,2013-02-20 09:24:00,
2013-02-20 04:25:00,38.8,29.8,29.25,SE,139,8.0,9.0,70,-99.99,,,0.00,meteohub,2013-02-20 09:25:00,
2013-02-20 04:26:00,38.7,29.3,29.25,NW,309,12.0,12.0,69,-99.99,,,0.00,meteohub,2013-02-20 09:26:00,
2013-02-20 04:27:00,38.5,28.4,29.25,WSW,245,7.0,9.0,67,-99.99,,,0.00,meteohub,2013-02-20 09:27:00,
2013-02-20 04:30:00,37.8,25.9,29.25,NW,314,3.0,9.0,62,-99.99,,,0.00,meteohub,2013-02-20 09:30:00,
2013-02-20 04:32:00,37.4,24.8,29.25,NW,320,6.0,9.0,60,-99.99,,,0.00,meteohub,2013-02-20 09:32:00,
2013-02-20 04:34:00,36.7,23.4,29.25,WSW,256,4.0,12.0,58,-99.99,,,0.00,meteohub,2013-02-20 09:34:00,
2013-02-20 04:36:00,36.1,22.5,29.25,NW,310,8.0,12.0,57,-99.99,,,0.00,meteohub,2013-02-20 09:36:00,
2013-02-20 04:37:00,36.0,22.3,29.25,WSW,251,3.0,12.0,57,-99.99,,,0.00,meteohub,2013-02-20 09:37:00,
2013-02-20 04:39:00,35.6,21.0,29.25,NW,309,0.0,12.0,55,-99.99,,,0.00,meteohub,2013-02-20 09:39:00,
2013-02-20 04:42:00,35.1,20.5,29.25,West,272,4.0,12.0,55,-99.99,,,0.00,meteohub,2013-02-20 09:42:00,
2013-02-20 04:44:00,34.7,20.1,29.25,NW,304,7.0,10.0,55,-99.99,,,0.00,meteohub,2013-02-20 09:44:00,
2013-02-20 04:47:00,34.5,19.6,29.25,WNW,301,4.0,10.0,54,-99.99,,,0.00,meteohub,2013-02-20 09:47:00,
2013-02-20 04:48:00,34.3,19.4,29.25,West,279,5.0,10.0,54,-99.99,,,0.00,meteohub,2013-02-20 09:48:00,
2013-02-20 04:53:00,34.0,19.0,29.25,WNW,282,3.0,10.0,54,-99.99,,,0.00,meteohub,2013-02-20 09:53:00,
2013-02-20 04:58:00,33.6,18.7,29.25,WNW,282,8.0,9.0,54,-99.99,,,0.00,meteohub,2013-02-20 09:58:00,
2013-02-20 04:59:00,33.6,18.7,29.25,WNW,282,4.0,9.0,54,-99.99,,,0.00,meteohub,2013-02-20 09:59:00,
2013-02-20 05:01:00,33.6,18.7,29.25,WNW,282,3.0,9.0,54,-99.99,,,0.00,meteohub,2013-02-20 10:01:00,
2013-02-20 05:04:00,33.4,18.1,29.25,WNW,282,4.0,9.0,53,-99.99,,,0.00,meteohub,2013-02-20 10:04:00,
2013-02-20 05:05:00,33.3,18.0,29.25,WNW,282,6.0,9.0,53,-99.99,,,0.00,meteohub,2013-02-20 10:05:00,
2013-02-20 05:07:00,33.3,18.0,29.25,WNW,282,3.0,10.0,53,-99.99,,,0.00,meteohub,2013-02-20 10:07:00,
2013-02-20 05:08:00,33.3,18.0,29.25,WNW,282,4.0,10.0,53,-99.99,,,0.00,meteohub,2013-02-20 10:08:00,
2013-02-20 05:12:00,33.1,17.4,29.25,WNW,282,3.0,10.0,52,-99.99,,,0.00,meteohub,2013-02-20 10:12:00,
2013-02-20 05:13:00,32.9,17.2,29.25,WNW,282,3.0,10.0,52,-99.99,,,0.00,meteohub,2013-02-20 10:13:00,
2013-02-20 05:15:00,32.9,17.2,29.25,WNW,282,8.0,10.0,52,-99.99,,,0.00,meteohub,2013-02-20 10:15:00,
2013-02-20 05:19:00,32.5,16.0,29.25,WNW,282,3.0,11.0,50,-99.99,,,0.00,meteohub,2013-02-20 10:19:00,
2013-02-20 05:20:00,32.5,16.0,29.25,WNW,282,5.0,11.0,50,-99.99,,,0.00,meteohub,2013-02-20 10:20:00,
2013-02-20 05:21:00,32.5,16.0,29.25,WNW,282,8.0,11.0,50,-99.99,,,0.00,meteohub,2013-02-20 10:21:00,
2013-02-20 05:22:00,32.5,16.0,29.25,WNW,282,4.0,11.0,50,-99.99,,,0.00,meteohub,2013-02-20 10:22:00,
2013-02-20 05:25:00,32.4,15.3,29.25,WNW,282,6.0,11.0,49,-99.99,,,0.00,meteohub,2013-02-20 10:25:00,
2013-02-20 05:26:00,32.4,14.9,29.25,WNW,282,4.0,11.0,48,-99.99,,,0.00,meteohub,2013-02-20 10:26:00,
2013-02-20 05:27:00,32.4,15.3,29.25,WNW,282,4.0,11.0,49,-99.99,,,0.00,meteohub,2013-02-20 10:27:00,
2013-02-20 05:29:00,32.2,14.7,29.25,WNW,282,3.0,11.0,48,-99.99,,,0.00,meteohub,2013-02-20 10:29:00,
2013-02-20 05:32:00,32.2,15.1,29.25,WNW,282,0.0,11.0,49,-99.99,,,0.00,meteohub,2013-02-20 10:32:00,
2013-02-20 05:33:00,32.2,15.1,29.25,WNW,282,6.0,11.0,49,-99.99,,,0.00,meteohub,2013-02-20 10:33:00,
2013-02-20 05:36:00,32.0,14.5,29.25,WNW,282,4.0,11.0,48,-99.99,,,0.00,meteohub,2013-02-20 10:36:00,
2013-02-20 05:38:00,32.0,15.1,29.25,WNW,282,4.0,11.0,49,-99.99,,,0.00,meteohub,2013-02-20 10:38:00,
2013-02-20 05:39:00,32.0,15.1,29.25,WNW,282,0.0,11.0,49,-99.99,,,0.00,meteohub,2013-02-20 10:39:00,
2013-02-20 05:40:00,32.0,15.1,29.25,WNW,282,0.0,11.0,49,-99.99,,,0.00,meteohub,2013-02-20 10:40:00,
2013-02-20 05:44:00,31.8,14.4,29.25,WNW,282,3.0,11.0,48,-99.99,,,0.00,meteohub,2013-02-20 10:44:00,
2013-02-20 05:45:00,31.8,13.8,29.28,WNW,282,9.0,11.0,47,-99.99,,,0.00,meteohub,2013-02-20 10:45:00,
2013-02-20 05:46:00,31.8,13.5,29.28,WNW,282,0.0,11.0,46,-99.99,,,0.00,meteohub,2013-02-20 10:46:00,
2013-02-20 05:48:00,31.8,13.5,29.28,WNW,282,0.0,11.0,46,-99.99,,,0.00,meteohub,2013-02-20 10:48:00,
2013-02-20 05:49:00,31.6,13.3,29.28,WNW,282,0.0,11.0,46,-99.99,,,0.00,meteohub,2013-02-20 10:49:00,
2013-02-20 05:51:00,31.6,12.7,29.28,WNW,282,0.0,10.0,45,-99.99,,,0.00,meteohub,2013-02-20 10:51:00,
2013-02-20 05:52:00,31.6,12.7,29.28,WNW,282,0.0,10.0,45,-99.99,,,0.00,meteohub,2013-02-20 10:52:00,
2013-02-20 05:55:00,31.6,12.7,29.28,WNW,282,0.0,10.0,45,-99.99,,,0.00,meteohub,2013-02-20 10:55:00,
2013-02-20 05:56:00,31.6,12.7,29.28,WNW,282,0.0,10.0,45,-99.99,,,0.00,meteohub,2013-02-20 10:56:00,
2013-02-20 05:58:00,31.6,12.7,29.28,WNW,282,0.0,10.0,45,-99.99,,,0.00,meteohub,2013-02-20 10:58:00,
2013-02-20 06:01:00,31.6,12.7,29.28,WNW,282,0.0,9.0,45,-99.99,,,0.00,meteohub,2013-02-20 11:01:00,
2013-02-20 06:02:00,31.6,12.7,29.28,WNW,282,0.0,9.0,45,-99.99,,,0.00,meteohub,2013-02-20 11:02:00,
2013-02-20 06:03:00,31.5,12.0,29.28,WNW,282,0.0,9.0,44,-99.99,,,0.00,meteohub,2013-02-20 11:03:00,
2013-02-20 06:07:00,31.5,11.5,29.28,WNW,282,0.0,9.0,43,-99.99,,,0.00,meteohub,2013-02-20 11:07:00,
2013-02-20 06:09:00,31.3,11.3,29.28,WNW,282,0.0,9.0,43,-99.99,,,0.00,meteohub,2013-02-20 11:09:00,
2013-02-20 06:11:00,31.3,11.3,29.28,WNW,282,0.0,0.0,43,-99.99,,,0.00,meteohub,2013-02-20 11:11:00,
2013-02-20 06:12:00,31.3,11.3,29.28,WNW,282,0.0,0.0,43,-99.99,,,0.00,meteohub,2013-02-20 11:12:00,
2013-02-20 06:14:00,31.1,11.3,29.28,WNW,282,0.0,0.0,43,-99.99,,,0.00,meteohub,2013-02-20 11:14:00,
2013-02-20 06:16:00,31.1,11.3,29.28,WNW,282,0.0,0.0,43,-99.99,,,0.00,meteohub,2013-02-20 11:16:00,
2013-02-20 06:18:00,30.9,11.1,29.28,WNW,282,0.0,0.0,43,-99.99,,,0.00,meteohub,2013-02-20 11:18:00,
2013-02-20 06:19:00,30.9,11.1,29.28,WNW,282,0.0,0.0,43,-99.99,,,0.00,meteohub,2013-02-20 11:19:00,
2013-02-20 06:21:00,30.7,10.9,29.28,WNW,282,0.0,0.0,43,-99.99,,,0.00,meteohub,2013-02-20 11:21:00,
2013-02-20 06:23:00,30.7,10.9,29.28,WNW,282,0.0,0.0,43,-99.99,,,0.00,meteohub,2013-02-20 11:23:00,
2013-02-20 06:24:00,30.7,10.9,29.28,WNW,282,0.0,0.0,43,-99.99,,,0.00,meteohub,2013-02-20 11:24:00,
2013-02-20 06:26:00,30.6,10.8,29.28,WNW,282,0.0,0.0,43,-99.99,,,0.00,meteohub,2013-02-20 11:26:00,
2013-02-20 06:29:00,30.6,10.8,29.28,WNW,282,0.0,0.0,43,-99.99,,,0.00,meteohub,2013-02-20 11:29:00,
2013-02-20 06:31:00,30.6,10.8,29.28,WNW,282,0.0,0.0,43,-99.99,,,0.00,meteohub,2013-02-20 11:31:00,
2013-02-20 06:32:00,30.6,10.8,29.28,WNW,282,0.0,0.0,43,-99.99,,,0.00,meteohub,2013-02-20 11:32:00,
2013-02-20 06:35:00,30.4,10.6,29.28,WNW,282,0.0,0.0,43,-99.99,,,0.00,meteohub,2013-02-20 11:35:00,
2013-02-20 06:36:00,30.4,10.6,29.28,WNW,282,0.0,0.0,43,-99.99,,,0.00,meteohub,2013-02-20 11:36:00,
2013-02-20 06:38:00,30.4,10.6,29.28,WNW,282,0.0,0.0,43,-99.99,,,0.00,meteohub,2013-02-20 11:38:00,
2013-02-20 06:39:00,30.2,10.4,29.28,WNW,282,0.0,0.0,43,-99.99,,,0.00,meteohub,2013-02-20 11:39:00,
2013-02-20 06:41:00,30.2,10.4,29.28,WNW,282,0.0,0.0,43,-99.99,,,0.00,meteohub,2013-02-20 11:41:00,
2013-02-20 06:43:00,30.2,9.9,29.28,WNW,282,0.0,0.0,42,-99.99,,,0.00,meteohub,2013-02-20 11:43:00,
2013-02-20 06:45:00,30.2,9.9,29.28,WNW,282,0.0,0.0,42,-99.99,,,0.00,meteohub,2013-02-20 11:45:00,
2013-02-20 06:47:00,30.0,9.7,29.28,WNW,282,0.0,0.0,42,-99.99,,,0.00,meteohub,2013-02-20 11:47:00,
2013-02-20 06:49:00,30.0,9.7,29.28,WNW,282,0.0,0.0,42,-99.99,,,0.00,meteohub,2013-02-20 11:49:00,
2013-02-20 06:50:00,29.8,9.5,29.28,WNW,282,0.0,0.0,42,-99.99,,,0.00,meteohub,2013-02-20 11:50:00,
2013-02-20 06:52:00,29.8,9.5,29.28,WNW,282,0.0,0.0,42,-99.99,,,0.00,meteohub,2013-02-20 11:52:00,
2013-02-20 06:54:00,29.7,9.3,29.28,WNW,282,0.0,0.0,42,-99.99,,,0.00,meteohub,2013-02-20 11:54:00,
2013-02-20 06:56:00,29.7,9.3,29.28,WNW,282,0.0,0.0,42,-99.99,,,0.00,meteohub,2013-02-20 11:56:00,
2013-02-20 06:57:00,29.7,9.3,29.28,WNW,282,0.0,0.0,42,-99.99,,,0.00,meteohub,2013-02-20 11:57:00,
2013-02-20 06:58:00,29.5,9.1,29.28,WNW,282,0.0,0.0,42,-99.99,,,0.00,meteohub,2013-02-20 11:58:00,
2013-02-20 06:59:00,29.5,9.1,29.28,WNW,282,0.0,0.0,42,-99.99,,,0.00,meteohub,2013-02-20 11:59:00,
2013-02-20 07:02:00,29.5,9.1,29.31,WNW,282,0.0,0.0,42,-99.99,,,0.00,meteohub,2013-02-20 12:02:00,
2013-02-20 07:03:00,29.3,9.0,29.31,WNW,282,0.0,0.0,42,-99.99,,,0.00,meteohub,2013-02-20 12:03:00,
2013-02-20 07:05:00,29.3,9.0,29.31,WNW,282,0.0,0.0,42,-99.99,,,0.00,meteohub,2013-02-20 12:05:00,
2013-02-20 07:08:00,29.1,8.4,29.31,WNW,282,0.0,0.0,41,-99.99,,,0.00,meteohub,2013-02-20 12:08:00,
2013-02-20 07:11:00,29.1,8.4,29.31,WNW,282,0.0,0.0,41,-99.99,,,0.00,meteohub,2013-02-20 12:11:00,
2013-02-20 07:16:00,29.1,8.4,29.31,WNW,282,0.0,0.0,41,-99.99,,,0.00,meteohub,2013-02-20 12:16:00,
2013-02-20 07:17:00,29.1,9.0,29.31,WNW,282,0.0,0.0,42,-99.99,,,0.00,meteohub,2013-02-20 12:17:00,
2013-02-20 07:18:00,29.1,9.0,29.31,WNW,282,0.0,0.0,42,-99.99,,,0.00,meteohub,2013-02-20 12:18:00,
2013-02-20 07:22:00,29.1,9.0,29.31,WNW,282,0.0,0.0,42,-99.99,,,0.00,meteohub,2013-02-20 12:22:00,
2013-02-20 07:23:00,29.1,9.0,29.31,WNW,282,0.0,0.0,42,-99.99,,,0.00,meteohub,2013-02-20 12:23:00,
2013-02-20 07:24:00,29.1,8.4,29.31,WNW,282,0.0,0.0,41,-99.99,,,0.00,meteohub,2013-02-20 12:24:00,
2013-02-20 07:26:00,29.1,8.4,29.31,WNW,282,0.0,0.0,41,-99.99,,,0.00,meteohub,2013-02-20 12:26:00,
2013-02-20 07:28:00,29.3,8.6,29.31,WNW,282,0.0,0.0,41,-99.99,,,0.00,meteohub,2013-02-20 12:28:00,
2013-02-20 07:31:00,29.3,8.6,29.31,WNW,282,0.0,0.0,41,-99.99,,,0.00,meteohub,2013-02-20 12:31:00,
2013-02-20 07:33:00,29.3,8.6,29.31,WNW,282,0.0,0.0,41,-99.99,,,0.00,meteohub,2013-02-20 12:33:00,
2013-02-20 07:34:00,29.3,8.6,29.31,WNW,282,0.0,0.0,41,-99.99,,,0.00,meteohub,2013-02-20 12:34:00,
2013-02-20 07:36:00,29.5,8.6,29.31,WNW,282,0.0,0.0,41,-99.99,,,0.00,meteohub,2013-02-20 12:36:00,
2013-02-20 07:38:00,29.5,8.6,29.31,WNW,282,0.0,0.0,41,-99.99,,,0.00,meteohub,2013-02-20 12:38:00,
2013-02-20 07:39:00,29.7,8.8,29.31,WNW,282,0.0,0.0,41,-99.99,,,0.00,meteohub,2013-02-20 12:39:00,
2013-02-20 07:41:00,29.7,8.8,29.31,WNW,282,0.0,0.0,41,-99.99,,,0.00,meteohub,2013-02-20 12:41:00,
2013-02-20 07:44:00,29.7,8.8,29.31,WNW,282,0.0,0.0,41,-99.99,,,0.00,meteohub,2013-02-20 12:44:00,
2013-02-20 07:46:00,29.7,8.8,29.31,WNW,282,0.0,0.0,41,-99.99,,,0.00,meteohub,2013-02-20 12:46:00,
2013-02-20 07:48:00,29.7,8.8,29.31,WNW,282,0.0,0.0,41,-99.99,,,0.00,meteohub,2013-02-20 12:48:00,
2013-02-20 07:50:00,29.7,8.8,29.31,WNW,282,0.0,0.0,41,-99.99,,,0.00,meteohub,2013-02-20 12:50:00,
2013-02-20 07:51:00,29.7,8.8,29.31,WNW,282,0.0,0.0,41,-99.99,,,0.00,meteohub,2013-02-20 12:51:00,
2013-02-20 07:52:00,29.7,8.8,29.31,WNW,282,0.0,0.0,41,-99.99,,,0.00,meteohub,2013-02-20 12:52:00,
2013-02-20 07:53:00,29.7,8.8,29.31,WNW,282,0.0,0.0,41,-99.99,,,0.00,meteohub,2013-02-20 12:53:00,
2013-02-20 07:58:00,29.7,8.8,29.31,WNW,282,0.0,0.0,41,-99.99,,,0.00,meteohub,2013-02-20 12:58:00,
2013-02-20 07:59:00,29.7,8.8,29.31,WNW,282,0.0,0.0,41,-99.99,,,0.00,meteohub,2013-02-20 12:59:00,
2013-02-20 08:03:00,29.7,8.2,29.31,WNW,282,0.0,0.0,40,-99.99,,,0.00,meteohub,2013-02-20 13:03:00,
2013-02-20 08:04:00,29.7,8.2,29.31,WNW,282,0.0,0.0,40,-99.99,,,0.00,meteohub,2013-02-20 13:04:00,
2013-02-20 08:05:00,29.7,8.2,29.31,WNW,282,0.0,0.0,40,-99.99,,,0.00,meteohub,2013-02-20 13:05:00,
2013-02-20 08:09:00,29.8,8.4,29.31,WNW,282,0.0,0.0,40,-99.99,,,0.00,meteohub,2013-02-20 13:09:00,
2013-02-20 08:10:00,29.8,8.4,29.31,WNW,282,0.0,0.0,40,-99.99,,,0.00,meteohub,2013-02-20 13:10:00,
2013-02-20 08:11:00,29.8,8.4,29.31,WNW,282,0.0,0.0,40,-99.99,,,0.00,meteohub,2013-02-20 13:11:00,
2013-02-20 08:16:00,30.2,8.8,29.31,WNW,282,0.0,0.0,40,-99.99,,,0.00,meteohub,2013-02-20 13:16:00,
2013-02-20 08:17:00,30.2,8.8,29.31,WNW,282,0.0,0.0,40,-99.99,,,0.00,meteohub,2013-02-20 13:17:00,
2013-02-20 08:18:00,30.2,8.8,29.31,WNW,282,0.0,0.0,40,-99.99,,,0.00,meteohub,2013-02-20 13:18:00,
2013-02-20 08:21:00,30.6,9.1,29.31,WNW,282,0.0,0.0,40,-99.99,,,0.00,meteohub,2013-02-20 13:21:00,
2013-02-20 08:22:00,30.6,9.1,29.31,WNW,282,0.0,0.0,40,-99.99,,,0.00,meteohub,2013-02-20 13:22:00,
2013-02-20 08:25:00,30.9,9.5,29.31,WNW,282,0.0,0.0,40,-99.99,,,0.00,meteohub,2013-02-20 13:25:00,
2013-02-20 08:28:00,31.1,8.4,29.31,WNW,282,0.0,0.0,38,-99.99,,,0.00,meteohub,2013-02-20 13:28:00,
2013-02-20 08:30:00,31.3,8.6,29.34,WNW,282,0.0,0.0,38,-99.99,,,0.00,meteohub,2013-02-20 13:30:00,
2013-02-20 08:32:00,31.3,8.6,29.34,WNW,282,0.0,0.0,38,-99.99,,,0.00,meteohub,2013-02-20 13:32:00,
2013-02-20 08:34:00,31.5,8.8,29.34,WNW,282,0.0,0.0,38,-99.99,,,0.00,meteohub,2013-02-20 13:34:00,
2013-02-20 08:35:00,31.5,8.2,29.34,WNW,282,0.0,0.0,37,-99.99,,,0.00,meteohub,2013-02-20 13:35:00,
2013-02-20 08:37:00,31.6,9.0,29.34,WNW,282,0.0,0.0,38,-99.99,,,0.00,meteohub,2013-02-20 13:37:00,
2013-02-20 08:39:00,32.0,8.6,29.34,WNW,282,0.0,0.0,37,-99.99,,,0.00,meteohub,2013-02-20 13:39:00,
2013-02-20 08:42:00,32.2,8.8,29.34,WNW,282,0.0,0.0,37,-99.99,,,0.00,meteohub,2013-02-20 13:42:00,
2013-02-20 08:43:00,32.2,8.8,29.34,WNW,282,0.0,0.0,37,-99.99,,,0.00,meteohub,2013-02-20 13:43:00,
2013-02-20 08:45:00,32.2,8.8,29.34,WNW,282,0.0,0.0,37,-99.99,,,0.00,meteohub,2013-02-20 13:45:00,
2013-02-20 08:47:00,32.4,8.4,29.34,WNW,282,0.0,0.0,36,-99.99,,,0.00,meteohub,2013-02-20 13:47:00,
2013-02-20 08:51:00,32.4,7.7,29.34,WNW,282,0.0,0.0,35,-99.99,,,0.00,meteohub,2013-02-20 13:51:00,
2013-02-20 08:52:00,32.4,7.7,29.34,WNW,282,0.0,0.0,35,-99.99,,,0.00,meteohub,2013-02-20 13:52:00,
2013-02-20 08:56:00,32.4,7.7,29.34,WNW,282,0.0,0.0,35,-99.99,,,0.00,meteohub,2013-02-20 13:56:00,
2013-02-20 08:57:00,32.4,7.7,29.34,WNW,282,0.0,0.0,35,-99.99,,,0.00,meteohub,2013-02-20 13:57:00,
2013-02-20 08:58:00,32.4,7.7,29.34,WNW,282,0.0,0.0,35,-99.99,,,0.00,meteohub,2013-02-20 13:58:00,
2013-02-20 09:01:00,32.5,8.6,29.34,WNW,282,0.0,0.0,36,-99.99,,,0.00,meteohub,2013-02-20 14:01:00,
2013-02-20 09:04:00,32.5,9.1,29.34,WNW,282,0.0,0.0,37,-99.99,,,0.00,meteohub,2013-02-20 14:04:00,
2013-02-20 09:05:00,32.5,8.6,29.34,WNW,282,0.0,0.0,36,-99.99,,,0.00,meteohub,2013-02-20 14:05:00,
2013-02-20 09:07:00,32.5,8.6,29.34,WNW,282,0.0,0.0,36,-99.99,,,0.00,meteohub,2013-02-20 14:07:00,
2013-02-20 09:10:00,32.5,9.1,29.34,WNW,282,0.0,0.0,37,-99.99,,,0.00,meteohub,2013-02-20 14:10:00,
2013-02-20 09:11:00,32.5,9.1,29.34,WNW,282,0.0,0.0,37,-99.99,,,0.00,meteohub,2013-02-20 14:11:00,
2013-02-20 09:12:00,32.7,8.8,29.34,WNW,282,0.0,0.0,36,-99.99,,,0.00,meteohub,2013-02-20 14:12:00,
2013-02-20 09:16:00,32.9,9.5,29.34,WNW,283,0.0,0.0,37,-99.99,,,0.00,meteohub,2013-02-20 14:16:00,
2013-02-20 09:17:00,32.9,8.8,29.34,WNW,283,0.0,0.0,36,-99.99,,,0.00,meteohub,2013-02-20 14:17:00,
2013-02-20 09:21:00,33.1,9.7,29.34,WNW,284,0.0,0.0,37,-99.99,,,0.00,meteohub,2013-02-20 14:21:00,
2013-02-20 09:22:00,33.3,9.9,29.34,West,281,0.0,0.0,37,-99.99,,,0.00,meteohub,2013-02-20 14:22:00,
2013-02-20 09:23:00,33.3,9.9,29.34,West,281,0.0,0.0,37,-99.99,,,0.00,meteohub,2013-02-20 14:23:00,
2013-02-20 09:28:00,33.4,9.3,29.34,SSE,168,0.0,0.0,36,-99.99,,,0.00,meteohub,2013-02-20 14:28:00,
2013-02-20 09:29:00,33.4,9.3,29.34,SSE,168,0.0,0.0,36,-99.99,,,0.00,meteohub,2013-02-20 14:29:00,
2013-02-20 09:33:00,33.6,9.5,29.34,SSE,168,0.0,0.0,36,-99.99,,,0.00,meteohub,2013-02-20 14:33:00,
2013-02-20 09:34:00,33.6,9.5,29.34,SSE,168,0.0,0.0,36,-99.99,,,0.00,meteohub,2013-02-20 14:34:00,
2013-02-20 09:37:00,33.6,9.0,29.34,SSE,168,0.0,0.0,35,-99.99,,,0.00,meteohub,2013-02-20 14:37:00,
2013-02-20 09:38:00,33.8,9.0,29.34,SSE,168,0.0,0.0,35,-99.99,,,0.00,meteohub,2013-02-20 14:38:00,
2013-02-20 09:40:00,33.6,9.0,29.34,SSE,168,0.0,0.0,35,-99.99,,,0.00,meteohub,2013-02-20 14:40:00,
2013-02-20 09:42:00,33.6,8.2,29.34,South,169,0.0,0.0,34,-99.99,,,0.00,meteohub,2013-02-20 14:42:00,
2013-02-20 09:43:00,33.6,9.0,29.34,South,169,0.0,0.0,35,-99.99,,,0.00,meteohub,2013-02-20 14:43:00,
2013-02-20 09:46:00,33.4,8.1,29.34,South,169,0.0,0.0,34,-99.99,,,0.00,meteohub,2013-02-20 14:46:00,
2013-02-20 09:47:00,33.3,7.9,29.34,South,169,0.0,0.0,34,-99.99,,,0.00,meteohub,2013-02-20 14:47:00,
2013-02-20 09:48:00,33.3,7.9,29.34,South,169,0.0,0.0,34,-99.99,,,0.00,meteohub,2013-02-20 14:48:00,
2013-02-20 09:50:00,33.1,7.7,29.34,South,169,0.0,0.0,34,-99.99,,,0.00,meteohub,2013-02-20 14:50:00,
2013-02-20 09:54:00,32.7,8.1,29.34,South,169,0.0,0.0,35,-99.99,,,0.00,meteohub,2013-02-20 14:54:00,
2013-02-20 09:55:00,32.7,8.1,29.34,South,169,0.0,0.0,35,-99.99,,,0.00,meteohub,2013-02-20 14:55:00,
2013-02-20 09:57:00,32.7,8.1,29.34,South,169,0.0,0.0,35,-99.99,,,0.00,meteohub,2013-02-20 14:57:00,
2013-02-20 09:59:00,32.7,8.1,29.34,South,169,0.0,0.0,35,-99.99,,,0.00,meteohub,2013-02-20 14:59:00,
2013-02-20 10:01:00,32.7,8.1,29.34,South,169,0.0,0.0,35,-99.99,,,0.00,meteohub,2013-02-20 15:01:00,
2013-02-20 10:04:00,32.7,8.1,29.34,South,169,0.0,0.0,35,-99.99,,,0.00,meteohub,2013-02-20 15:04:00,
2013-02-20 10:05:00,33.1,8.4,29.34,South,169,0.0,0.0,35,-99.99,,,0.00,meteohub,2013-02-20 15:05:00,
2013-02-20 10:07:00,33.1,8.4,29.34,South,169,0.0,0.0,35,-99.99,,,0.00,meteohub,2013-02-20 15:07:00,
2013-02-20 10:08:00,33.3,8.6,29.34,South,169,0.0,0.0,35,-99.99,,,0.00,meteohub,2013-02-20 15:08:00,
2013-02-20 10:10:00,33.6,9.0,29.34,South,169,0.0,0.0,35,-99.99,,,0.00,meteohub,2013-02-20 15:10:00,
2013-02-20 10:12:00,33.8,9.0,29.34,NW,313,0.0,0.0,35,-99.99,,,0.00,meteohub,2013-02-20 15:12:00,
2013-02-20 10:13:00,33.8,9.0,29.34,WSW,256,0.0,0.0,35,-99.99,,,0.00,meteohub,2013-02-20 15:13:00,
2013-02-20 10:16:00,34.0,8.6,29.34,West,275,0.0,0.0,34,-99.99,,,0.00,meteohub,2013-02-20 15:16:00,
2013-02-20 10:18:00,33.8,7.7,29.34,WSW,240,0.0,0.0,33,-99.99,,,0.00,meteohub,2013-02-20 15:18:00,
2013-02-20 10:20:00,33.6,7.5,29.34,WSW,240,0.0,0.0,33,-99.99,,,0.00,meteohub,2013-02-20 15:20:00,
2013-02-20 10:21:00,33.8,7.7,29.34,WSW,240,0.0,0.0,33,-99.99,,,0.00,meteohub,2013-02-20 15:21:00,
2013-02-20 10:24:00,33.8,7.7,29.34,WSW,240,0.0,0.0,33,-99.99,,,0.00,meteohub,2013-02-20 15:24:00,
2013-02-20 10:26:00,34.0,8.6,29.34,WSW,240,0.0,0.0,34,-99.99,,,0.00,meteohub,2013-02-20 15:26:00,
2013-02-20 10:27:00,34.2,8.8,29.34,WSW,240,0.0,0.0,34,-99.99,,,0.00,meteohub,2013-02-20 15:27:00,
2013-02-20 10:30:00,34.5,8.4,29.34,WSW,240,0.0,0.0,33,-99.99,,,0.00,meteohub,2013-02-20 15:30:00,
2013-02-20 10:32:00,34.7,8.6,29.34,WSW,241,0.0,0.0,33,-99.99,,,0.00,meteohub,2013-02-20 15:32:00,
2013-02-20 10:33:00,34.7,7.9,29.34,WSW,241,0.0,0.0,32,-99.99,,,0.00,meteohub,2013-02-20 15:33:00,
2013-02-20 10:34:00,34.7,7.9,29.34,WSW,241,0.0,0.0,32,-99.99,,,0.00,meteohub,2013-02-20 15:34:00,
2013-02-20 10:36:00,34.5,7.7,29.34,WSW,241,0.0,0.0,32,-99.99,,,0.00,meteohub,2013-02-20 15:36:00,
2013-02-20 10:39:00,34.3,7.5,29.34,WSW,240,0.0,0.0,32,-99.99,,,0.00,meteohub,2013-02-20 15:39:00,
2013-02-20 10:40:00,34.2,7.3,29.34,WSW,241,0.0,0.0,32,-99.99,,,0.00,meteohub,2013-02-20 15:40:00,
2013-02-20 10:44:00,33.8,7.0,29.34,WSW,241,0.0,0.0,32,-99.99,,,0.00,meteohub,2013-02-20 15:44:00,
2013-02-20 10:46:00,33.8,7.0,29.34,WSW,241,0.0,0.0,32,-99.99,,,0.00,meteohub,2013-02-20 15:46:00,
2013-02-20 10:47:00,33.8,7.0,29.34,WSW,241,0.0,0.0,32,-99.99,,,0.00,meteohub,2013-02-20 15:47:00,
2013-02-20 10:49:00,33.6,7.0,29.34,WSW,241,0.0,0.0,32,-99.99,,,0.00,meteohub,2013-02-20 15:49:00,
2013-02-20 10:50:00,33.4,6.8,29.34,WSW,241,0.0,0.0,32,-99.99,,,0.00,meteohub,2013-02-20 15:50:00,
2013-02-20 10:51:00,33.4,6.8,29.34,WSW,241,0.0,0.0,32,-99.99,,,0.00,meteohub,2013-02-20 15:51:00,
2013-02-20 10:55:00,33.3,6.6,29.34,WSW,241,0.0,0.0,32,-99.99,,,0.00,meteohub,2013-02-20 15:55:00,
2013-02-20 10:56:00,33.4,6.8,29.34,WSW,241,0.0,0.0,32,-99.99,,,0.00,meteohub,2013-02-20 15:56:00,
2013-02-20 10:57:00,33.4,6.8,29.34,WSW,241,0.0,0.0,32,-99.99,,,0.00,meteohub,2013-02-20 15:57:00,
2013-02-20 11:01:00,34.0,7.2,29.34,NW,309,0.0,0.0,32,-99.99,,,0.00,meteohub,2013-02-20 16:01:00,
2013-02-20 11:02:00,34.0,7.2,29.34,West,278,0.0,0.0,32,-99.99,,,0.00,meteohub,2013-02-20 16:02:00,
2013-02-20 11:03:00,34.0,7.2,29.34,West,278,0.0,0.0,32,-99.99,,,0.00,meteohub,2013-02-20 16:03:00,
2013-02-20 11:06:00,34.2,6.6,29.34,SSW,195,0.0,0.0,31,-99.99,,,0.00,meteohub,2013-02-20 16:06:00,
2013-02-20 11:07:00,34.2,6.6,29.34,NW,310,0.0,0.0,31,-99.99,,,0.00,meteohub,2013-02-20 16:07:00,
2013-02-20 11:08:00,34.2,6.6,29.34,NNW,336,0.0,0.0,31,-99.99,,,0.00,meteohub,2013-02-20 16:08:00,
2013-02-20 11:09:00,34.0,6.4,29.34,West,275,0.0,0.0,31,-99.99,,,0.00,meteohub,2013-02-20 16:09:00,
2013-02-20 11:12:00,33.8,6.4,29.34,West,275,0.0,0.0,31,-99.99,,,0.00,meteohub,2013-02-20 16:12:00,
2013-02-20 11:13:00,33.6,6.3,29.34,West,275,0.0,0.0,31,-99.99,,,0.00,meteohub,2013-02-20 16:13:00,
2013-02-20 11:15:00,33.4,6.1,29.34,West,275,0.0,0.0,31,-99.99,,,0.00,meteohub,2013-02-20 16:15:00,
2013-02-20 11:18:00,33.6,7.0,29.34,West,275,0.0,0.0,32,-99.99,,,0.00,meteohub,2013-02-20 16:18:00,
2013-02-20 11:19:00,33.6,7.0,29.34,West,275,0.0,0.0,32,-99.99,,,0.00,meteohub,2013-02-20 16:19:00,
2013-02-20 11:20:00,33.8,7.0,29.34,West,275,0.0,0.0,32,-99.99,,,0.00,meteohub,2013-02-20 16:20:00,
2013-02-20 11:24:00,34.3,6.8,29.34,West,275,0.0,0.0,31,-99.99,,,0.00,meteohub,2013-02-20 16:24:00,
2013-02-20 11:25:00,34.5,7.0,29.34,West,275,0.0,0.0,31,-99.99,,,0.00,meteohub,2013-02-20 16:25:00,
2013-02-20 11:26:00,34.9,7.3,29.34,West,275,0.0,0.0,31,-99.99,,,0.00,meteohub,2013-02-20 16:26:00,
2013-02-20 11:29:00,35.4,7.7,29.34,West,275,0.0,0.0,31,-99.99,,,0.00,meteohub,2013-02-20 16:29:00,
2013-02-20 11:30:00,35.6,7.2,29.34,West,275,0.0,0.0,30,-99.99,,,0.00,meteohub,2013-02-20 16:30:00,
2013-02-20 11:31:00,35.8,7.3,29.34,West,274,0.0,0.0,30,-99.99,,,0.00,meteohub,2013-02-20 16:31:00,
2013-02-20 11:32:00,36.0,7.5,29.34,West,274,0.0,0.0,30,-99.99,,,0.00,meteohub,2013-02-20 16:32:00,
2013-02-20 11:35:00,36.3,7.9,29.34,West,270,4.0,0.0,30,-99.99,,,0.00,meteohub,2013-02-20 16:35:00,
2013-02-20 11:38:00,36.7,8.2,29.34,West,270,0.0,0.0,30,-99.99,,,0.00,meteohub,2013-02-20 16:38:00,
2013-02-20 11:39:00,36.7,8.2,29.34,NW,318,3.0,0.0,30,-99.99,,,0.00,meteohub,2013-02-20 16:39:00,
2013-02-20 11:42:00,36.7,7.3,29.34,NW,319,4.0,0.0,29,-99.99,,,0.00,meteohub,2013-02-20 16:42:00,
2013-02-20 11:45:00,36.3,7.2,29.34,WNW,290,13.0,13.0,29,-99.99,,,0.00,meteohub,2013-02-20 16:45:00,
2013-02-20 11:47:00,36.1,7.0,29.34,West,277,8.0,8.0,29,-99.99,,,0.00,meteohub,2013-02-20 16:47:00,
2013-02-20 11:48:00,36.0,6.8,29.34,West,277,4.0,8.0,29,-99.99,,,0.00,meteohub,2013-02-20 16:48:00,
2013-02-20 11:51:00,35.8,6.6,29.34,West,277,0.0,8.0,29,-99.99,,,0.00,meteohub,2013-02-20 16:51:00,
2013-02-20 11:53:00,36.0,6.8,29.34,West,277,8.0,13.0,29,-99.99,,,0.00,meteohub,2013-02-20 16:53:00,
2013-02-20 11:54:00,36.0,6.8,29.34,West,277,3.0,13.0,29,-99.99,,,0.00,meteohub,2013-02-20 16:54:00,
2013-02-20 11:58:00,35.8,6.6,29.34,West,277,4.0,13.0,29,-99.99,,,0.00,meteohub,2013-02-20 16:58:00,
2013-02-20 11:59:00,35.8,6.6,29.34,West,277,8.0,13.0,29,-99.99,,,0.00,meteohub,2013-02-20 16:59:00,
2013-02-20 12:00:00,35.8,6.6,29.31,West,277,3.0,13.0,29,-99.99,,,0.00,meteohub,2013-02-20 17:00:00,
2013-02-20 12:01:00,35.6,4.8,29.31,West,277,5.0,13.0,27,-99.99,,,0.00,meteohub,2013-02-20 17:01:00,
2013-02-20 12:03:00,35.4,7.0,29.31,West,277,9.0,11.0,30,-99.99,,,0.00,meteohub,2013-02-20 17:03:00,
2013-02-20 12:06:00,34.9,4.3,29.31,West,277,11.0,11.0,27,-99.99,,,0.00,meteohub,2013-02-20 17:06:00,
2013-02-20 12:07:00,34.9,4.3,29.31,West,277,4.0,11.0,27,-99.99,,,0.00,meteohub,2013-02-20 17:07:00,
2013-02-20 12:10:00,34.5,6.3,29.31,West,277,3.0,11.0,30,-99.99,,,0.00,meteohub,2013-02-20 17:10:00,
2013-02-20 12:13:00,34.3,6.1,29.31,West,277,5.0,11.0,30,-99.99,,,0.00,meteohub,2013-02-20 17:13:00,
2013-02-20 12:15:00,34.3,6.1,29.31,West,277,8.0,11.0,30,-99.99,,,0.00,meteohub,2013-02-20 17:15:00,
2013-02-20 12:17:00,34.2,5.9,29.31,West,277,3.0,11.0,30,-99.99,,,0.00,meteohub,2013-02-20 17:17:00,
2013-02-20 12:19:00,34.2,5.9,29.31,West,277,6.0,11.0,30,-99.99,,,0.00,meteohub,2013-02-20 17:19:00,
2013-02-20 12:22:00,34.3,6.1,29.31,West,277,3.0,11.0,30,-99.99,,,0.00,meteohub,2013-02-20 17:22:00,
2013-02-20 12:23:00,34.3,6.1,29.31,West,277,3.0,11.0,30,-99.99,,,0.00,meteohub,2013-02-20 17:23:00,
2013-02-20 12:25:00,34.5,6.3,29.31,West,277,4.0,11.0,30,-99.99,,,0.00,meteohub,2013-02-20 17:25:00,
2013-02-20 12:28:00,34.9,6.6,29.31,West,277,3.0,11.0,30,-99.99,,,0.00,meteohub,2013-02-20 17:28:00,
2013-02-20 12:29:00,35.1,6.8,29.31,West,277,4.0,11.0,30,-99.99,,,0.00,meteohub,2013-02-20 17:29:00,
2013-02-20 12:32:00,35.1,6.8,29.31,West,277,4.0,11.0,30,-99.99,,,0.00,meteohub,2013-02-20 17:32:00,
2013-02-20 12:33:00,34.9,6.6,29.31,West,277,4.0,11.0,30,-99.99,,,0.00,meteohub,2013-02-20 17:33:00,
2013-02-20 12:35:00,34.9,6.6,29.31,West,277,6.0,11.0,30,-99.99,,,0.00,meteohub,2013-02-20 17:35:00,
2013-02-20 12:37:00,34.7,4.1,29.31,West,277,4.0,11.0,27,-99.99,,,0.00,meteohub,2013-02-20 17:37:00,
2013-02-20 12:38:00,34.7,4.1,29.31,West,277,3.0,11.0,27,-99.99,,,0.00,meteohub,2013-02-20 17:38:00,
2013-02-20 12:40:00,34.7,4.1,29.31,West,277,14.0,14.0,27,-99.99,,,0.00,meteohub,2013-02-20 17:40:00,
2013-02-20 12:42:00,34.9,4.3,29.31,West,277,5.0,11.0,27,-99.99,,,0.00,meteohub,2013-02-20 17:42:00,
2013-02-20 12:45:00,34.9,4.3,29.31,West,270,6.0,14.0,27,-99.99,,,0.00,meteohub,2013-02-20 17:45:00,
2013-02-20 12:49:00,35.1,4.5,29.31,West,270,4.0,14.0,27,-99.99,,,0.00,meteohub,2013-02-20 17:49:00,
2013-02-20 12:50:00,35.2,4.6,29.31,West,270,5.0,14.0,27,-99.99,,,0.00,meteohub,2013-02-20 17:50:00,
2013-02-20 12:52:00,35.6,4.8,29.31,West,271,0.0,14.0,27,-99.99,,,0.00,meteohub,2013-02-20 17:52:00,
2013-02-20 12:54:00,35.8,5.0,29.31,West,270,6.0,14.0,27,-99.99,,,0.00,meteohub,2013-02-20 17:54:00,
2013-02-20 12:56:00,36.0,2.7,29.31,West,266,6.0,14.0,24,-99.99,,,0.00,meteohub,2013-02-20 17:56:00,
2013-02-20 12:58:00,36.1,2.8,29.31,West,266,9.0,12.0,24,-99.99,,,0.00,meteohub,2013-02-20 17:58:00,
2013-02-20 12:59:00,36.1,2.8,29.31,West,266,4.0,12.0,24,-99.99,,,0.00,meteohub,2013-02-20 17:59:00,
2013-02-20 13:00:00,36.1,2.8,29.31,West,266,0.0,12.0,24,-99.99,,,0.00,meteohub,2013-02-20 18:00:00,
2013-02-20 13:02:00,36.1,2.8,29.31,West,262,4.0,12.0,24,-99.99,,,0.00,meteohub,2013-02-20 18:02:00,
2013-02-20 13:05:00,36.3,3.0,29.31,West,262,6.0,10.0,24,-99.99,,,0.00,meteohub,2013-02-20 18:05:00,
2013-02-20 13:06:00,36.1,2.8,29.31,West,262,4.0,10.0,24,-99.99,,,0.00,meteohub,2013-02-20 18:06:00,
2013-02-20 13:07:00,36.1,2.8,29.31,West,262,5.0,10.0,24,-99.99,,,0.00,meteohub,2013-02-20 18:07:00,
2013-02-20 13:11:00,35.8,2.5,29.31,West,262,4.0,10.0,24,-99.99,,,0.00,meteohub,2013-02-20 18:11:00,
2013-02-20 13:14:00,35.6,0.5,29.31,WSW,256,2.0,16.0,22,-99.99,,,0.00,meteohub,2013-02-20 18:14:00,
2013-02-20 13:16:00,35.6,2.3,29.31,WSW,256,0.0,16.0,24,-99.99,,,0.00,meteohub,2013-02-20 18:16:00,
2013-02-20 13:18:00,35.6,2.3,29.31,WSW,258,4.0,16.0,24,-99.99,,,0.00,meteohub,2013-02-20 18:18:00,
2013-02-20 13:19:00,35.8,2.5,29.31,WSW,258,0.0,16.0,24,-99.99,,,0.00,meteohub,2013-02-20 18:19:00,
2013-02-20 13:21:00,35.8,2.5,29.31,WSW,257,3.0,16.0,24,-99.99,,,0.00,meteohub,2013-02-20 18:21:00,
2013-02-20 13:24:00,35.8,2.5,29.31,NNW,335,4.0,16.0,24,-99.99,,,0.00,meteohub,2013-02-20 18:24:00,
2013-02-20 13:25:00,36.0,2.7,29.31,NW,304,6.0,16.0,24,-99.99,,,0.00,meteohub,2013-02-20 18:25:00,
2013-02-20 13:26:00,36.0,2.7,29.31,West,275,4.0,16.0,24,-99.99,,,0.00,meteohub,2013-02-20 18:26:00,
2013-02-20 13:27:00,36.0,2.7,29.31,North,1,4.0,16.0,24,-99.99,,,0.00,meteohub,2013-02-20 18:27:00,
2013-02-20 13:29:00,36.0,0.9,29.31,NW,319,6.0,16.0,22,-99.99,,,0.00,meteohub,2013-02-20 18:29:00,
2013-02-20 13:32:00,35.6,0.5,29.31,NNW,329,5.0,21.0,22,-99.99,,,0.00,meteohub,2013-02-20 18:32:00,
2013-02-20 13:33:00,35.6,0.5,29.31,South,188,8.0,21.0,22,-99.99,,,0.00,meteohub,2013-02-20 18:33:00,
2013-02-20 13:34:00,35.4,0.3,29.31,NW,314,9.0,21.0,22,-99.99,,,0.00,meteohub,2013-02-20 18:34:00,
2013-02-20 13:36:00,35.1,0.0,29.31,NNW,339,0.0,21.0,22,-99.99,,,0.00,meteohub,2013-02-20 18:36:00,
2013-02-20 13:38:00,34.9,0.0,29.31,SSW,203,2.0,21.0,22,-99.99,,,0.00,meteohub,2013-02-20 18:38:00,
2013-02-20 13:39:00,34.7,-0.2,29.31,WNW,283,4.0,21.0,22,-99.99,,,0.00,meteohub,2013-02-20 18:39:00,
2013-02-20 13:40:00,34.5,-0.4,29.31,WSW,248,4.0,21.0,22,-99.99,,,0.00,meteohub,2013-02-20 18:40:00,
2013-02-20 13:44:00,34.3,-0.6,29.31,WNW,297,3.0,12.0,22,-99.99,,,0.00,meteohub,2013-02-20 18:44:00,
2013-02-20 13:45:00,34.3,-0.6,29.31,NW,308,9.0,12.0,22,-99.99,,,0.00,meteohub,2013-02-20 18:45:00,
2013-02-20 13:46:00,34.3,-0.6,29.31,West,270,8.0,12.0,22,-99.99,,,0.00,meteohub,2013-02-20 18:46:00,
2013-02-20 13:47:00,34.3,-0.6,29.31,NW,318,3.0,12.0,22,-99.99,,,0.00,meteohub,2013-02-20 18:47:00,
2013-02-20 13:50:00,34.2,-0.8,29.31,NW,306,4.0,12.0,22,-99.99,,,0.00,meteohub,2013-02-20 18:50:00,
2013-02-20 13:51:00,34.2,-0.8,29.31,NW,313,3.0,12.0,22,-99.99,,,0.00,meteohub,2013-02-20 18:51:00,
2013-02-20 13:52:00,34.2,-0.8,29.31,WNW,297,6.0,11.0,22,-99.99,,,0.00,meteohub,2013-02-20 18:52:00,
2013-02-20 13:53:00,34.2,-0.8,29.31,SSW,193,4.0,11.0,22,-99.99,,,0.00,meteohub,2013-02-20 18:53:00,
2013-02-20 13:57:00,34.0,-0.9,29.31,NW,325,4.0,11.0,22,-99.99,,,0.00,meteohub,2013-02-20 18:57:00,
2013-02-20 13:58:00,33.8,-1.1,29.31,NW,325,3.0,10.0,22,-99.99,,,0.00,meteohub,2013-02-20 18:58:00,
2013-02-20 14:01:00,33.6,-0.2,29.31,NW,306,4.0,10.0,23,-99.99,,,0.00,meteohub,2013-02-20 19:01:00,
2013-02-20 14:03:00,33.6,-0.2,29.31,NNW,343,6.0,10.0,23,-99.99,,,0.00,meteohub,2013-02-20 19:03:00,
2013-02-20 14:04:00,33.6,-0.2,29.31,WNW,303,6.0,10.0,23,-99.99,,,0.00,meteohub,2013-02-20 19:04:00,
2013-02-20 14:05:00,33.6,-0.2,29.31,WSW,247,4.0,10.0,23,-99.99,,,0.00,meteohub,2013-02-20 19:05:00,
2013-02-20 14:07:00,33.6,-0.2,29.31,NW,313,3.0,10.0,23,-99.99,,,0.00,meteohub,2013-02-20 19:07:00,
2013-02-20 14:09:00,33.6,1.6,29.31,WSW,245,6.0,10.0,25,-99.99,,,0.00,meteohub,2013-02-20 19:09:00,
2013-02-20 14:10:00,33.6,1.6,29.31,ESE,121,0.0,10.0,25,-99.99,,,0.00,meteohub,2013-02-20 19:10:00,
2013-02-20 14:12:00,33.6,1.6,29.31,North,357,0.0,10.0,25,-99.99,,,0.00,meteohub,2013-02-20 19:12:00,
2013-02-20 14:14:00,33.8,1.8,29.31,North,353,4.0,9.0,25,-99.99,,,0.00,meteohub,2013-02-20 19:14:00,
2013-02-20 14:15:00,33.8,1.8,29.31,West,273,0.0,9.0,25,-99.99,,,0.00,meteohub,2013-02-20 19:15:00,
2013-02-20 14:17:00,34.0,1.8,29.31,WNW,285,0.0,9.0,25,-99.99,,,0.00,meteohub,2013-02-20 19:17:00,
2013-02-20 14:18:00,34.0,-0.9,29.31,WNW,302,4.0,9.0,22,-99.99,,,0.00,meteohub,2013-02-20 19:18:00,
2013-02-20 14:20:00,34.0,-0.9,29.31,NW,320,6.0,9.0,22,-99.99,,,0.00,meteohub,2013-02-20 19:20:00,
2013-02-20 14:23:00,34.0,-0.9,29.31,NW,305,4.0,9.0,22,-99.99,,,0.00,meteohub,2013-02-20 19:23:00,
2013-02-20 14:24:00,34.0,-0.9,29.31,NNW,334,5.0,9.0,22,-99.99,,,0.00,meteohub,2013-02-20 19:24:00,
2013-02-20 14:26:00,34.0,-0.9,29.31,ENE,78,3.0,9.0,22,-99.99,,,0.00,meteohub,2013-02-20 19:26:00,
2013-02-20 14:29:00,33.8,-1.1,29.31,SSE,168,6.0,9.0,22,-99.99,,,0.00,meteohub,2013-02-20 19:29:00,
2013-02-20 14:30:00,33.8,-1.1,29.31,WNW,292,3.0,9.0,22,-99.99,,,0.00,meteohub,2013-02-20 19:30:00,
2013-02-20 14:31:00,33.8,-1.1,29.31,WSW,240,4.0,9.0,22,-99.99,,,0.00,meteohub,2013-02-20 19:31:00,
2013-02-20 14:34:00,33.4,-0.4,29.31,NW,304,3.0,13.0,23,-99.99,,,0.00,meteohub,2013-02-20 19:34:00,
2013-02-20 14:35:00,33.4,-0.4,29.31,NW,317,2.0,13.0,23,-99.99,,,0.00,meteohub,2013-02-20 19:35:00,
2013-02-20 14:37:00,33.3,-0.6,29.31,North,8,8.0,13.0,23,-99.99,,,0.00,meteohub,2013-02-20 19:37:00,
2013-02-20 14:38:00,33.3,-0.6,29.31,NW,318,0.0,13.0,23,-99.99,,,0.00,meteohub,2013-02-20 19:38:00,
2013-02-20 14:40:00,33.3,-0.6,29.31,NW,319,7.0,13.0,23,-99.99,,,0.00,meteohub,2013-02-20 19:40:00,
2013-02-20 14:42:00,33.3,-0.6,29.31,WSW,250,6.0,13.0,23,-99.99,,,0.00,meteohub,2013-02-20 19:42:00,
2013-02-20 14:44:00,33.1,-0.8,29.31,SW,222,8.0,13.0,23,-99.99,,,0.00,meteohub,2013-02-20 19:44:00,
2013-02-20 14:47:00,33.1,-0.8,29.31,NW,307,3.0,13.0,23,-99.99,,,0.00,meteohub,2013-02-20 19:47:00,
2013-02-20 14:48:00,33.1,-0.8,29.31,West,260,8.0,13.0,23,-99.99,,,0.00,meteohub,2013-02-20 19:48:00,
2013-02-20 14:49:00,33.1,-0.8,29.31,WNW,284,11.0,13.0,23,-99.99,,,0.00,meteohub,2013-02-20 19:49:00,
2013-02-20 14:50:00,33.1,-0.8,29.31,NNW,331,3.0,13.0,23,-99.99,,,0.00,meteohub,2013-02-20 19:50:00,
2013-02-20 14:54:00,33.1,-0.8,29.31,WSW,254,4.0,11.0,23,-99.99,,,0.00,meteohub,2013-02-20 19:54:00,
2013-02-20 14:56:00,33.3,-0.6,29.31,West,281,0.0,11.0,23,-99.99,,,0.00,meteohub,2013-02-20 19:56:00,
2013-02-20 15:00:00,33.3,-0.6,29.31,West,275,5.0,11.0,23,-99.99,,,0.00,meteohub,2013-02-20 20:00:00,
2013-02-20 15:01:00,33.1,-0.8,29.31,NNW,348,8.0,11.0,23,-99.99,,,0.00,meteohub,2013-02-20 20:01:00,
2013-02-20 15:02:00,33.1,-0.8,29.31,North,357,5.0,11.0,23,-99.99,,,0.00,meteohub,2013-02-20 20:02:00,
2013-02-20 15:06:00,32.9,-0.9,29.31,NE,51,5.0,11.0,23,-99.99,,,0.00,meteohub,2013-02-20 20:06:00,
2013-02-20 15:07:00,32.9,-0.9,29.31,WSW,256,5.0,11.0,23,-99.99,,,0.00,meteohub,2013-02-20 20:07:00,
2013-02-20 15:08:00,32.7,-0.9,29.31,NW,317,3.0,11.0,23,-99.99,,,0.00,meteohub,2013-02-20 20:08:00,
2013-02-20 15:09:00,32.7,-0.9,29.31,SW,234,4.0,11.0,23,-99.99,,,0.00,meteohub,2013-02-20 20:09:00,
2013-02-20 15:13:00,32.5,-1.1,29.31,North,353,8.0,10.0,23,-99.99,,,0.00,meteohub,2013-02-20 20:13:00,
2013-02-20 15:14:00,32.4,-1.3,29.31,WNW,294,5.0,10.0,23,-99.99,,,0.00,meteohub,2013-02-20 20:14:00,
2013-02-20 15:17:00,32.2,-1.5,29.34,NNW,333,0.0,10.0,23,-99.99,,,0.00,meteohub,2013-02-20 20:17:00,
2013-02-20 15:20:00,32.0,-1.7,29.34,NNW,328,3.0,11.0,23,-99.99,,,0.00,meteohub,2013-02-20 20:20:00,
2013-02-20 15:21:00,32.0,-1.7,29.34,ENE,65,0.0,11.0,23,-99.99,,,0.00,meteohub,2013-02-20 20:21:00,
2013-02-20 15:24:00,31.6,-2.0,29.34,West,276,0.0,11.0,23,-99.99,,,0.00,meteohub,2013-02-20 20:24:00,
2013-02-20 15:25:00,31.5,-2.0,29.34,West,261,3.0,11.0,23,-99.99,,,0.00,meteohub,2013-02-20 20:25:00,
2013-02-20 15:26:00,31.5,-2.0,29.34,NW,306,0.0,11.0,23,-99.99,,,0.00,meteohub,2013-02-20 20:26:00,
2013-02-20 15:28:00,31.3,-2.2,29.34,WNW,302,4.0,11.0,23,-99.99,,,0.00,meteohub,2013-02-20 20:28:00,
2013-02-20 15:30:00,31.1,-2.4,29.34,NW,309,4.0,11.0,23,-99.99,,,0.00,meteohub,2013-02-20 20:30:00,
2013-02-20 15:32:00,31.1,-2.4,29.34,NNW,330,3.0,11.0,23,-99.99,,,0.00,meteohub,2013-02-20 20:32:00,
2013-02-20 15:33:00,31.1,-2.4,29.34,WSW,255,5.0,6.0,23,-99.99,,,0.00,meteohub,2013-02-20 20:33:00,
2013-02-20 15:36:00,30.9,-2.6,29.34,NNW,341,9.0,9.0,23,-99.99,,,0.00,meteohub,2013-02-20 20:36:00,
2013-02-20 15:37:00,30.9,-2.6,29.34,West,268,0.0,6.0,23,-99.99,,,0.00,meteohub,2013-02-20 20:37:00,
2013-02-20 15:38:00,30.7,-2.7,29.34,SSW,209,6.0,6.0,23,-99.99,,,0.00,meteohub,2013-02-20 20:38:00,
2013-02-20 15:39:00,30.7,-2.7,29.34,NW,314,4.0,6.0,23,-99.99,,,0.00,meteohub,2013-02-20 20:39:00,
2013-02-20 15:42:00,30.7,-2.7,29.34,WNW,301,0.0,6.0,23,-99.99,,,0.00,meteohub,2013-02-20 20:42:00,
2013-02-20 15:43:00,30.7,-2.7,29.34,NNW,338,6.0,9.0,23,-99.99,,,0.00,meteohub,2013-02-20 20:43:00,
2013-02-20 15:44:00,30.7,-2.7,29.34,WNW,297,4.0,9.0,23,-99.99,,,0.00,meteohub,2013-02-20 20:44:00,
2013-02-20 15:48:00,30.7,-2.7,29.34,NW,307,3.0,9.0,23,-99.99,,,0.00,meteohub,2013-02-20 20:48:00,
2013-02-20 15:49:00,30.7,-2.7,29.34,ESE,123,8.0,9.0,23,-99.99,,,0.00,meteohub,2013-02-20 20:49:00,
2013-02-20 15:50:00,30.7,-2.7,29.34,West,273,5.0,9.0,23,-99.99,,,0.00,meteohub,2013-02-20 20:50:00,
2013-02-20 15:52:00,30.6,-2.9,29.34,SW,220,3.0,9.0,23,-99.99,,,0.00,meteohub,2013-02-20 20:52:00,
2013-02-20 15:53:00,30.6,-2.9,29.34,WSW,242,3.0,10.0,23,-99.99,,,0.00,meteohub,2013-02-20 20:53:00,
2013-02-20 15:56:00,30.6,-2.9,29.34,WSW,246,4.0,10.0,23,-99.99,,,0.00,meteohub,2013-02-20 20:56:00,
2013-02-20 15:58:00,30.6,-2.9,29.34,WNW,290,11.0,11.0,23,-99.99,,,0.00,meteohub,2013-02-20 20:58:00,
2013-02-20 15:59:00,30.6,-2.9,29.34,WNW,297,8.0,10.0,23,-99.99,,,0.00,meteohub,2013-02-20 20:59:00,
2013-02-20 16:00:00,30.6,-2.9,29.34,WSW,244,4.0,10.0,23,-99.99,,,0.00,meteohub,2013-02-20 21:00:00,
2013-02-20 16:03:00,30.6,-2.9,29.34,WNW,303,11.0,15.0,23,-99.99,,,0.00,meteohub,2013-02-20 21:03:00,
2013-02-20 16:05:00,30.4,-2.9,29.34,WNW,298,6.0,15.0,23,-99.99,,,0.00,meteohub,2013-02-20 21:05:00,
2013-02-20 16:06:00,30.4,-2.9,29.34,SSE,158,5.0,15.0,23,-99.99,,,0.00,meteohub,2013-02-20 21:06:00,
2013-02-20 16:09:00,30.4,-6.0,29.34,NNW,336,8.0,15.0,20,-99.99,,,0.00,meteohub,2013-02-20 21:09:00,
2013-02-20 16:10:00,30.2,-3.1,29.34,WSW,238,8.0,15.0,23,-99.99,,,0.00,meteohub,2013-02-20 21:10:00,
2013-02-20 16:13:00,30.2,-6.0,29.34,NW,305,15.0,15.0,20,-99.99,,,0.00,meteohub,2013-02-20 21:13:00,
2013-02-20 16:15:00,30.2,-6.0,29.34,West,265,4.0,11.0,20,-99.99,,,0.00,meteohub,2013-02-20 21:15:00,
2013-02-20 16:16:00,30.2,-3.1,29.34,NNW,338,4.0,11.0,23,-99.99,,,0.00,meteohub,2013-02-20 21:16:00,
2013-02-20 16:19:00,30.0,-3.3,29.34,WNW,296,6.0,15.0,23,-99.99,,,0.00,meteohub,2013-02-20 21:19:00,
2013-02-20 16:20:00,30.0,-3.3,29.34,South,182,9.0,15.0,23,-99.99,,,0.00,meteohub,2013-02-20 21:20:00,
2013-02-20 16:21:00,30.0,-6.2,29.34,WNW,296,7.0,15.0,20,-99.99,,,0.00,meteohub,2013-02-20 21:21:00,
2013-02-20 16:24:00,29.8,-6.3,29.34,NW,317,0.0,15.0,20,-99.99,,,0.00,meteohub,2013-02-20 21:24:00,
2013-02-20 16:26:00,29.8,-3.5,29.34,West,280,4.0,15.0,23,-99.99,,,0.00,meteohub,2013-02-20 21:26:00,
2013-02-20 16:27:00,29.7,-3.6,29.34,ESE,102,2.0,15.0,23,-99.99,,,0.00,meteohub,2013-02-20 21:27:00,
2013-02-20 16:30:00,29.7,-3.6,29.34,SE,144,6.0,15.0,23,-99.99,,,0.00,meteohub,2013-02-20 21:30:00,
2013-02-20 16:32:00,29.5,-6.7,29.34,WNW,302,3.0,15.0,20,-99.99,,,0.00,meteohub,2013-02-20 21:32:00,
2013-02-20 16:33:00,29.5,-6.7,29.34,NW,319,3.0,15.0,20,-99.99,,,0.00,meteohub,2013-02-20 21:33:00,
2013-02-20 16:36:00,29.5,-3.8,29.34,WNW,300,4.0,15.0,23,-99.99,,,0.00,meteohub,2013-02-20 21:36:00,
2013-02-20 16:38:00,29.5,-3.8,29.34,ENE,66,4.0,15.0,23,-99.99,,,0.00,meteohub,2013-02-20 21:38:00,
2013-02-20 16:39:00,29.5,-3.8,29.34,West,266,3.0,15.0,23,-99.99,,,0.00,meteohub,2013-02-20 21:39:00,
2013-02-20 16:41:00,29.3,-4.0,29.34,WNW,285,3.0,15.0,23,-99.99,,,0.00,meteohub,2013-02-20 21:41:00,
2013-02-20 16:42:00,29.3,-4.0,29.34,NNW,328,6.0,15.0,23,-99.99,,,0.00,meteohub,2013-02-20 21:42:00,
2013-02-20 16:44:00,29.3,-4.0,29.34,NW,309,4.0,15.0,23,-99.99,,,0.00,meteohub,2013-02-20 21:44:00,
2013-02-20 16:46:00,29.1,-4.0,29.34,SW,216,4.0,15.0,23,-99.99,,,0.00,meteohub,2013-02-20 21:46:00,
2013-02-20 16:47:00,29.1,-4.0,29.34,North,0,3.0,15.0,23,-99.99,,,0.00,meteohub,2013-02-20 21:47:00,
2013-02-20 16:50:00,28.9,-4.2,29.34,NNW,327,5.0,15.0,23,-99.99,,,0.00,meteohub,2013-02-20 21:50:00,
2013-02-20 16:51:00,28.9,-4.2,29.34,NW,319,4.0,15.0,23,-99.99,,,0.00,meteohub,2013-02-20 21:51:00,
2013-02-20 16:53:00,28.9,-4.2,29.34,WNW,289,6.0,10.0,23,-99.99,,,0.00,meteohub,2013-02-20 21:53:00,
2013-02-20 16:55:00,28.8,-4.4,29.34,NW,308,7.0,10.0,23,-99.99,,,0.00,meteohub,2013-02-20 21:55:00,
2013-02-20 16:57:00,28.8,-4.4,29.34,NW,305,3.0,10.0,23,-99.99,,,0.00,meteohub,2013-02-20 21:57:00,
2013-02-20 16:58:00,28.8,-4.4,29.34,NW,310,5.0,10.0,23,-99.99,,,0.00,meteohub,2013-02-20 21:58:00,
2013-02-20 16:59:00,28.8,-4.4,29.34,NW,320,9.0,10.0,23,-99.99,,,0.00,meteohub,2013-02-20 21:59:00,
2013-02-20 17:02:00,28.6,-4.5,29.34,WNW,294,5.0,10.0,23,-99.99,,,0.00,meteohub,2013-02-20 22:02:00,
2013-02-20 17:03:00,28.6,-4.5,29.34,WSW,257,3.0,17.0,23,-99.99,,,0.00,meteohub,2013-02-20 22:03:00,
2013-02-20 17:04:00,28.6,-4.5,29.34,NNW,337,4.0,17.0,23,-99.99,,,0.00,meteohub,2013-02-20 22:04:00,
2013-02-20 17:05:00,28.6,-4.5,29.34,SE,132,4.0,17.0,23,-99.99,,,0.00,meteohub,2013-02-20 22:05:00,
2013-02-20 17:08:00,28.4,-4.7,29.34,NW,312,10.0,17.0,23,-99.99,,,0.00,meteohub,2013-02-20 22:08:00,
2013-02-20 17:10:00,28.2,-4.9,29.34,WSW,241,4.0,17.0,23,-99.99,,,0.00,meteohub,2013-02-20 22:10:00,
2013-02-20 17:13:00,28.2,-4.9,29.34,West,274,4.0,17.0,23,-99.99,,,0.00,meteohub,2013-02-20 22:13:00,
2013-02-20 17:15:00,28.0,-5.1,29.36,WNW,292,8.0,17.0,23,-99.99,,,0.00,meteohub,2013-02-20 22:15:00,
2013-02-20 17:16:00,28.0,-5.1,29.36,West,275,5.0,17.0,23,-99.99,,,0.00,meteohub,2013-02-20 22:16:00,
2013-02-20 17:19:00,27.9,-5.1,29.36,WNW,298,4.0,10.0,23,-99.99,,,0.00,meteohub,2013-02-20 22:19:00,
2013-02-20 17:22:00,27.9,-5.1,29.36,West,279,0.0,10.0,23,-99.99,,,0.00,meteohub,2013-02-20 22:22:00,
2013-02-20 17:24:00,27.7,-2.7,29.36,NNW,336,3.0,10.0,26,-99.99,,,0.00,meteohub,2013-02-20 22:24:00,
2013-02-20 17:25:00,27.7,-2.7,29.36,NW,322,5.0,10.0,26,-99.99,,,0.00,meteohub,2013-02-20 22:25:00,
2013-02-20 17:27:00,27.5,-5.4,29.36,ESE,105,4.0,10.0,23,-99.99,,,0.00,meteohub,2013-02-20 22:27:00,
2013-02-20 17:30:00,27.5,-5.4,29.36,WSW,256,5.0,10.0,23,-99.99,,,0.00,meteohub,2013-02-20 22:30:00,
2013-02-20 17:31:00,27.5,-5.4,29.36,NNW,327,3.0,10.0,23,-99.99,,,0.00,meteohub,2013-02-20 22:31:00,
2013-02-20 17:33:00,27.5,-2.9,29.36,NW,313,6.0,11.0,26,-99.99,,,0.00,meteohub,2013-02-20 22:33:00,
2013-02-20 17:35:00,27.3,-5.6,29.36,SSW,194,5.0,11.0,23,-99.99,,,0.00,meteohub,2013-02-20 22:35:00,
2013-02-20 17:36:00,27.3,-5.6,29.36,WNW,294,2.0,11.0,23,-99.99,,,0.00,meteohub,2013-02-20 22:36:00,
2013-02-20 17:37:00,27.3,-5.6,29.36,WNW,295,3.0,11.0,23,-99.99,,,0.00,meteohub,2013-02-20 22:37:00,
2013-02-20 17:38:00,27.3,-5.6,29.36,West,280,5.0,11.0,23,-99.99,,,0.00,meteohub,2013-02-20 22:38:00,
2013-02-20 17:41:00,27.3,-5.6,29.36,NNW,344,0.0,11.0,23,-99.99,,,0.00,meteohub,2013-02-20 22:41:00,
2013-02-20 17:42:00,27.3,-5.6,29.36,SSE,154,0.0,11.0,23,-99.99,,,0.00,meteohub,2013-02-20 22:42:00,
2013-02-20 17:43:00,27.3,-5.6,29.36,SSE,154,0.0,12.0,23,-99.99,,,0.00,meteohub,2013-02-20 22:43:00,
2013-02-20 17:46:00,27.1,-3.3,29.36,SW,230,8.0,12.0,26,-99.99,,,0.00,meteohub,2013-02-20 22:46:00,
2013-02-20 17:48:00,27.1,-5.8,29.36,NW,314,5.0,12.0,23,-99.99,,,0.00,meteohub,2013-02-20 22:48:00,
2013-02-20 17:49:00,27.1,-5.8,29.36,WNW,298,6.0,12.0,23,-99.99,,,0.00,meteohub,2013-02-20 22:49:00,
2013-02-20 17:50:00,27.1,-5.8,29.36,WNW,288,6.0,12.0,23,-99.99,,,0.00,meteohub,2013-02-20 22:50:00,
2013-02-20 17:52:00,27.0,-6.0,29.36,WSW,254,3.0,12.0,23,-99.99,,,0.00,meteohub,2013-02-20 22:52:00,
2013-02-20 17:53:00,27.0,-6.0,29.36,SSE,158,3.0,8.0,23,-99.99,,,0.00,meteohub,2013-02-20 22:53:00,
2013-02-20 17:54:00,27.0,-3.5,29.36,NW,313,3.0,8.0,26,-99.99,,,0.00,meteohub,2013-02-20 22:54:00,
2013-02-20 17:55:00,27.0,-3.5,29.36,West,260,5.0,8.0,26,-99.99,,,0.00,meteohub,2013-02-20 22:55:00,
2013-02-20 17:57:00,27.0,-3.5,29.36,West,273,4.0,8.0,26,-99.99,,,0.00,meteohub,2013-02-20 22:57:00,
2013-02-20 17:59:00,27.0,-3.5,29.36,SW,223,9.0,13.0,26,-99.99,,,0.00,meteohub,2013-02-20 22:59:00,
2013-02-20 18:00:00,27.0,-6.0,29.36,West,263,4.0,13.0,23,-99.99,,,0.00,meteohub,2013-02-20 23:00:00,
2013-02-20 18:01:00,27.0,-3.5,29.36,NW,314,7.0,13.0,26,-99.99,,,0.00,meteohub,2013-02-20 23:01:00,
2013-02-20 18:03:00,27.0,-3.5,29.36,SSW,210,0.0,13.0,26,-99.99,,,0.00,meteohub,2013-02-20 23:03:00,
2013-02-20 18:05:00,26.8,-3.5,29.36,North,357,3.0,13.0,26,-99.99,,,0.00,meteohub,2013-02-20 23:05:00,
2013-02-20 18:06:00,26.8,-3.5,29.36,SW,226,2.0,13.0,26,-99.99,,,0.00,meteohub,2013-02-20 23:06:00,
2013-02-20 18:11:00,26.8,-3.5,29.36,NW,322,4.0,13.0,26,-99.99,,,0.00,meteohub,2013-02-20 23:11:00,
2013-02-20 18:12:00,26.8,-3.5,29.36,South,175,3.0,11.0,26,-99.99,,,0.00,meteohub,2013-02-20 23:12:00,
2013-02-20 18:13:00,26.6,-3.6,29.36,North,3,0.0,11.0,26,-99.99,,,0.00,meteohub,2013-02-20 23:13:00,
2013-02-20 18:17:00,26.6,-3.6,29.36,SW,226,0.0,11.0,26,-99.99,,,0.00,meteohub,2013-02-20 23:17:00,
2013-02-20 18:19:00,26.6,-3.6,29.36,WNW,300,6.0,11.0,26,-99.99,,,0.00,meteohub,2013-02-20 23:19:00,
2013-02-20 18:20:00,26.6,-3.6,29.36,SSE,165,3.0,11.0,26,-99.99,,,0.00,meteohub,2013-02-20 23:20:00,
2013-02-20 18:23:00,26.6,-3.6,29.36,SW,234,5.0,11.0,26,-99.99,,,0.00,meteohub,2013-02-20 23:23:00,
2013-02-20 18:25:00,26.6,-3.6,29.36,North,4,5.0,11.0,26,-99.99,,,0.00,meteohub,2013-02-20 23:25:00,
2013-02-20 18:29:00,26.6,-3.6,29.36,NE,43,4.0,15.0,26,-99.99,,,0.00,meteohub,2013-02-20 23:29:00,
2013-02-20 18:33:00,26.4,-3.8,29.36,SW,232,5.0,8.0,26,-99.99,,,0.00,meteohub,2013-02-20 23:33:00,
2013-02-20 18:34:00,26.4,-3.8,29.36,WNW,303,4.0,8.0,26,-99.99,,,0.00,meteohub,2013-02-20 23:34:00,
2013-02-20 18:36:00,26.2,-4.0,29.36,NNE,18,3.0,8.0,26,-99.99,,,0.00,meteohub,2013-02-20 23:36:00,
2013-02-20 18:39:00,26.1,-4.2,29.36,WSW,244,0.0,8.0,26,-99.99,,,0.00,meteohub,2013-02-20 23:39:00,
2013-02-20 18:40:00,26.1,-4.2,29.36,NNW,327,5.0,8.0,26,-99.99,,,0.00,meteohub,2013-02-20 23:40:00,
2013-02-20 18:41:00,26.1,-4.2,29.36,WNW,286,3.0,8.0,26,-99.99,,,0.00,meteohub,2013-02-20 23:41:00,
2013-02-20 18:44:00,26.1,-1.8,29.36,WNW,293,0.0,12.0,29,-99.99,,,0.00,meteohub,2013-02-20 23:44:00,
2013-02-20 18:46:00,26.1,-1.8,29.36,NNW,348,2.0,12.0,29,-99.99,,,0.00,meteohub,2013-02-20 23:46:00,
2013-02-20 18:47:00,26.1,-1.8,29.36,WNW,295,6.0,12.0,29,-99.99,,,0.00,meteohub,2013-02-20 23:47:00,
2013-02-20 18:50:00,26.1,-1.8,29.36,SSE,153,2.0,12.0,29,-99.99,,,0.00,meteohub,2013-02-20 23:50:00,
2013-02-20 18:52:00,26.1,-1.8,29.36,NW,309,6.0,12.0,29,-99.99,,,0.00,meteohub,2013-02-20 23:52:00,
2013-02-20 18:53:00,26.1,-1.8,29.36,WNW,302,8.0,12.0,29,-99.99,,,0.00,meteohub,2013-02-20 23:53:00,
2013-02-20 18:54:00,26.1,-1.8,29.36,West,267,3.0,11.0,29,-99.99,,,0.00,meteohub,2013-02-20 23:54:00,
2013-02-20 18:57:00,26.1,-1.8,29.36,NNW,334,0.0,11.0,29,-99.99,,,0.00,meteohub,2013-02-20 23:57:00,
2013-02-20 18:58:00,26.1,-1.8,29.36,South,185,3.0,12.0,29,-99.99,,,0.00,meteohub,2013-02-20 23:58:00,
2013-02-20 18:59:00,26.1,-1.8,29.36,NNW,340,8.0,12.0,29,-99.99,,,0.00,meteohub,2013-02-20 23:59:00,
2013-02-20 19:03:00,25.9,-0.6,29.36,WNW,285,3.0,12.0,31,-99.99,,,0.00,meteohub,2013-02-21 00:03:00,
2013-02-20 19:04:00,25.9,-0.6,29.36,WSW,239,0.0,12.0,31,-99.99,,,0.00,meteohub,2013-02-21 00:04:00,
2013-02-20 19:05:00,25.9,-0.6,29.36,WNW,292,0.0,12.0,31,-99.99,,,0.00,meteohub,2013-02-21 00:05:00,
2013-02-20 19:07:00,25.9,-0.6,29.36,SSW,208,0.0,12.0,31,-99.99,,,0.00,meteohub,2013-02-21 00:07:00,
2013-02-20 19:08:00,25.9,-0.6,29.36,WNW,293,0.0,12.0,31,-99.99,,,0.00,meteohub,2013-02-21 00:08:00,
2013-02-20 19:10:00,25.9,-0.6,29.36,NNW,330,0.0,12.0,31,-99.99,,,0.00,meteohub,2013-02-21 00:10:00,
2013-02-20 19:11:00,25.9,-0.6,29.36,NNW,328,3.0,12.0,31,-99.99,,,0.00,meteohub,2013-02-21 00:11:00,
2013-02-20 19:13:00,25.9,-0.6,29.36,West,264,9.0,9.0,31,-99.99,,,0.00,meteohub,2013-02-21 00:13:00,
2013-02-20 19:16:00,25.9,-0.6,29.39,WNW,298,4.0,8.0,31,-99.99,,,0.00,meteohub,2013-02-21 00:16:00,
2013-02-20 19:18:00,25.9,-0.6,29.39,WNW,301,4.0,9.0,31,-99.99,,,0.00,meteohub,2013-02-21 00:18:00,
2013-02-20 19:19:00,25.9,-0.6,29.39,WNW,290,4.0,9.0,31,-99.99,,,0.00,meteohub,2013-02-21 00:19:00,
2013-02-20 19:23:00,25.9,-0.6,29.39,WNW,283,4.0,9.0,31,-99.99,,,0.00,meteohub,2013-02-21 00:23:00,
2013-02-20 19:24:00,25.9,-0.6,29.39,North,349,7.0,9.0,31,-99.99,,,0.00,meteohub,2013-02-21 00:24:00,
2013-02-20 19:25:00,25.9,-0.6,29.39,WNW,287,0.0,9.0,31,-99.99,,,0.00,meteohub,2013-02-21 00:25:00,
2013-02-20 19:26:00,25.9,-0.6,29.39,WSW,237,0.0,9.0,31,-99.99,,,0.00,meteohub,2013-02-21 00:26:00,
2013-02-20 19:29:00,25.9,-0.6,29.39,West,280,3.0,9.0,31,-99.99,,,0.00,meteohub,2013-02-21 00:29:00,
2013-02-20 19:30:00,25.9,-0.6,29.39,WNW,285,4.0,9.0,31,-99.99,,,0.00,meteohub,2013-02-21 00:30:00,
2013-02-20 19:31:00,25.9,-0.6,29.39,NW,319,3.0,9.0,31,-99.99,,,0.00,meteohub,2013-02-21 00:31:00,
2013-02-20 19:33:00,25.9,-0.6,29.39,NW,322,0.0,9.0,31,-99.99,,,0.00,meteohub,2013-02-21 00:33:00,
2013-02-20 19:35:00,25.9,-0.6,29.39,South,186,5.0,9.0,31,-99.99,,,0.00,meteohub,2013-02-21 00:35:00,
2013-02-20 19:37:00,25.7,-0.8,29.39,SE,130,5.0,9.0,31,-99.99,,,0.00,meteohub,2013-02-21 00:37:00,
2013-02-20 19:38:00,25.7,-0.8,29.39,NW,318,0.0,9.0,31,-99.99,,,0.00,meteohub,2013-02-21 00:38:00,
2013-02-20 19:41:00,25.7,0.0,29.39,West,261,3.0,9.0,32,-99.99,,,0.00,meteohub,2013-02-21 00:41:00,
2013-02-20 19:43:00,25.7,-0.8,29.39,WSW,250,0.0,9.0,31,-99.99,,,0.00,meteohub,2013-02-21 00:43:00,
2013-02-20 19:44:00,25.7,-0.8,29.39,NW,321,0.0,9.0,31,-99.99,,,0.00,meteohub,2013-02-21 00:44:00,
2013-02-20 19:45:00,25.7,-0.8,29.39,West,263,4.0,9.0,31,-99.99,,,0.00,meteohub,2013-02-21 00:45:00,
2013-02-20 19:48:00,25.7,0.0,29.39,WNW,293,3.0,9.0,32,-99.99,,,0.00,meteohub,2013-02-21 00:48:00,
2013-02-20 19:49:00,25.7,0.0,29.39,WNW,288,10.0,10.0,32,-99.99,,,0.00,meteohub,2013-02-21 00:49:00,
2013-02-20 19:50:00,25.7,0.0,29.39,WNW,296,0.0,9.0,32,-99.99,,,0.00,meteohub,2013-02-21 00:50:00,
2013-02-20 19:51:00,25.7,0.0,29.39,WNW,288,0.0,9.0,32,-99.99,,,0.00,meteohub,2013-02-21 00:51:00,
2013-02-20 19:53:00,25.9,0.1,29.39,NW,310,2.0,10.0,32,-99.99,,,0.00,meteohub,2013-02-21 00:53:00,
2013-02-20 19:54:00,25.9,0.1,29.39,NNW,329,3.0,10.0,32,-99.99,,,0.00,meteohub,2013-02-21 00:54:00,
2013-02-20 19:56:00,26.1,0.1,29.39,WNW,288,3.0,10.0,32,-99.99,,,0.00,meteohub,2013-02-21 00:56:00,
2013-02-20 19:58:00,26.1,0.1,29.39,West,281,6.0,10.0,32,-99.99,,,0.00,meteohub,2013-02-21 00:58:00,
2013-02-20 19:59:00,26.1,0.1,29.39,SSW,201,3.0,10.0,32,-99.99,,,0.00,meteohub,2013-02-21 00:59:00,
2013-02-20 20:00:00,26.1,0.1,29.39,WNW,285,3.0,10.0,32,-99.99,,,0.00,meteohub,2013-02-21 01:00:00,
2013-02-20 20:02:00,26.1,0.1,29.39,WNW,302,0.0,10.0,32,-99.99,,,0.00,meteohub,2013-02-21 01:02:00,
2013-02-20 20:03:00,26.1,0.1,29.39,SE,134,2.0,10.0,32,-99.99,,,0.00,meteohub,2013-02-21 01:03:00,
2013-02-20 20:07:00,26.1,0.1,29.39,West,274,0.0,10.0,32,-99.99,,,0.00,meteohub,2013-02-21 01:07:00,
2013-02-20 20:08:00,26.1,0.1,29.39,North,0,4.0,10.0,32,-99.99,,,0.00,meteohub,2013-02-21 01:08:00,
2013-02-20 20:09:00,26.1,0.1,29.39,NW,312,2.0,10.0,32,-99.99,,,0.00,meteohub,2013-02-21 01:09:00,
2013-02-20 20:10:00,26.1,0.1,29.39,NNE,26,0.0,10.0,32,-99.99,,,0.00,meteohub,2013-02-21 01:10:00,
2013-02-20 20:14:00,26.1,0.1,29.39,WSW,251,4.0,8.0,32,-99.99,,,0.00,meteohub,2013-02-21 01:14:00,
2013-02-20 20:15:00,26.1,0.1,29.39,WSW,254,5.0,8.0,32,-99.99,,,0.00,meteohub,2013-02-21 01:15:00,
2013-02-20 20:16:00,26.1,0.1,29.39,NNW,342,3.0,8.0,32,-99.99,,,0.00,meteohub,2013-02-21 01:16:00,
2013-02-20 20:19:00,26.1,0.1,29.39,WNW,291,6.0,15.0,32,-99.99,,,0.00,meteohub,2013-02-21 01:19:00,
2013-02-20 20:20:00,26.1,0.1,29.39,WSW,258,5.0,15.0,32,-99.99,,,0.00,meteohub,2013-02-21 01:20:00,
2013-02-20 20:22:00,26.1,0.1,29.39,SW,216,5.0,15.0,32,-99.99,,,0.00,meteohub,2013-02-21 01:22:00,
2013-02-20 20:24:00,26.1,0.1,29.39,NW,306,0.0,15.0,32,-99.99,,,0.00,meteohub,2013-02-21 01:24:00,
2013-02-20 20:25:00,26.1,0.1,29.39,NNW,341,0.0,15.0,32,-99.99,,,0.00,meteohub,2013-02-21 01:25:00,
2013-02-20 20:27:00,26.1,0.1,29.39,NNW,327,4.0,15.0,32,-99.99,,,0.00,meteohub,2013-02-21 01:27:00,
2013-02-20 20:28:00,26.1,0.1,29.39,West,265,4.0,15.0,32,-99.99,,,0.00,meteohub,2013-02-21 01:28:00,
2013-02-20 20:31:00,26.1,0.1,29.39,NW,326,0.0,15.0,32,-99.99,,,0.00,meteohub,2013-02-21 01:31:00,
2013-02-20 20:32:00,25.9,0.1,29.39,NW,326,0.0,15.0,32,-99.99,,,0.00,meteohub,2013-02-21 01:32:00,
2013-02-20 20:33:00,25.9,0.1,29.39,South,182,4.0,8.0,32,-99.99,,,0.00,meteohub,2013-02-21 01:33:00,
2013-02-20 20:37:00,25.9,0.1,29.39,WSW,253,3.0,8.0,32,-99.99,,,0.00,meteohub,2013-02-21 01:37:00,
2013-02-20 20:38:00,25.9,0.1,29.39,NW,311,5.0,8.0,32,-99.99,,,0.00,meteohub,2013-02-21 01:38:00,
2013-02-20 20:43:00,25.7,0.0,29.39,West,272,4.0,13.0,32,-99.99,,,0.00,meteohub,2013-02-21 01:43:00,
2013-02-20 20:44:00,25.7,0.0,29.39,West,263,4.0,13.0,32,-99.99,,,0.00,meteohub,2013-02-21 01:44:00,
2013-02-20 20:46:00,25.5,-0.2,29.39,NNW,327,5.0,13.0,32,-99.99,,,0.00,meteohub,2013-02-21 01:46:00,
2013-02-20 20:49:00,25.5,-0.2,29.39,WNW,293,4.0,13.0,32,-99.99,,,0.00,meteohub,2013-02-21 01:49:00,
2013-02-20 20:50:00,25.5,-0.2,29.39,NNW,344,3.0,13.0,32,-99.99,,,0.00,meteohub,2013-02-21 01:50:00,
2013-02-20 20:52:00,25.3,0.3,29.39,SW,215,6.0,13.0,33,-99.99,,,0.00,meteohub,2013-02-21 01:52:00,
2013-02-20 20:54:00,25.3,0.3,29.39,NNW,336,4.0,11.0,33,-99.99,,,0.00,meteohub,2013-02-21 01:54:00,
2013-02-20 20:55:00,25.3,0.3,29.39,SSW,200,8.0,11.0,33,-99.99,,,0.00,meteohub,2013-02-21 01:55:00,
2013-02-20 20:57:00,25.3,0.3,29.39,SW,236,5.0,11.0,33,-99.99,,,0.00,meteohub,2013-02-21 01:57:00,
2013-02-20 21:00:00,25.3,0.3,29.39,WNW,290,4.0,11.0,33,-99.99,,,0.00,meteohub,2013-02-21 02:00:00,
2013-02-20 21:02:00,25.3,0.3,29.39,West,277,5.0,11.0,33,-99.99,,,0.00,meteohub,2013-02-21 02:02:00,
2013-02-20 21:06:00,25.2,0.1,29.39,West,270,0.0,8.0,33,-99.99,,,0.00,meteohub,2013-02-21 02:06:00,
2013-02-20 21:07:00,25.2,0.1,29.39,West,268,0.0,8.0,33,-99.99,,,0.00,meteohub,2013-02-21 02:07:00,
2013-02-20 21:08:00,25.2,0.1,29.39,WNW,291,4.0,8.0,33,-99.99,,,0.00,meteohub,2013-02-21 02:08:00,
2013-02-20 21:11:00,25.0,0.0,29.39,NNW,328,0.0,8.0,33,-99.99,,,0.00,meteohub,2013-02-21 02:11:00,
2013-02-20 21:12:00,25.0,0.0,29.39,WSW,239,0.0,8.0,33,-99.99,,,0.00,meteohub,2013-02-21 02:12:00,
2013-02-20 21:13:00,24.8,-0.2,29.39,NW,324,3.0,8.0,33,-99.99,,,0.00,meteohub,2013-02-21 02:13:00,
2013-02-20 21:14:00,24.8,-0.2,29.39,NW,309,0.0,8.0,33,-99.99,,,0.00,meteohub,2013-02-21 02:14:00,
2013-02-20 21:17:00,24.8,0.3,29.39,NNW,331,4.0,8.0,34,-99.99,,,0.00,meteohub,2013-02-21 02:17:00,
2013-02-20 21:18:00,24.8,0.3,29.39,NNW,338,4.0,8.0,34,-99.99,,,0.00,meteohub,2013-02-21 02:18:00,
2013-02-20 21:22:00,24.6,0.3,29.39,NW,304,0.0,8.0,34,-99.99,,,0.00,meteohub,2013-02-21 02:22:00,
2013-02-20 21:23:00,24.6,0.3,29.39,West,277,6.0,9.0,34,-99.99,,,0.00,meteohub,2013-02-21 02:23:00,
2013-02-20 21:24:00,24.6,0.3,29.39,WNW,297,6.0,9.0,34,-99.99,,,0.00,meteohub,2013-02-21 02:24:00,
2013-02-20 21:29:00,24.6,0.3,29.39,NW,326,3.0,9.0,34,-99.99,,,0.00,meteohub,2013-02-21 02:29:00,
2013-02-20 21:30:00,24.6,0.3,29.39,WNW,294,4.0,9.0,34,-99.99,,,0.00,meteohub,2013-02-21 02:30:00,
2013-02-20 21:33:00,24.6,0.3,29.39,NW,311,4.0,9.0,34,-99.99,,,0.00,meteohub,2013-02-21 02:33:00,
2013-02-20 21:35:00,24.6,0.3,29.39,SW,227,0.0,9.0,34,-99.99,,,0.00,meteohub,2013-02-21 02:35:00,
2013-02-20 21:36:00,24.6,0.3,29.39,SSW,205,0.0,9.0,34,-99.99,,,0.00,meteohub,2013-02-21 02:36:00,
2013-02-20 21:39:00,24.6,0.3,29.39,NW,308,14.0,14.0,34,-99.99,,,0.00,meteohub,2013-02-21 02:39:00,
2013-02-20 21:42:00,24.6,0.3,29.39,NW,321,3.0,9.0,34,-99.99,,,0.00,meteohub,2013-02-21 02:42:00,
2013-02-20 21:45:00,24.6,0.3,29.39,West,278,3.0,14.0,34,-99.99,,,0.00,meteohub,2013-02-21 02:45:00,
2013-02-20 21:46:00,24.6,0.9,29.39,West,263,8.0,14.0,35,-99.99,,,0.00,meteohub,2013-02-21 02:46:00,
2013-02-20 21:50:00,24.4,0.7,29.39,WNW,303,3.0,14.0,35,-99.99,,,0.00,meteohub,2013-02-21 02:50:00,
2013-02-20 21:51:00,24.4,0.7,29.39,North,4,0.0,14.0,35,-99.99,,,0.00,meteohub,2013-02-21 02:51:00,
2013-02-20 21:53:00,24.4,0.7,29.39,West,277,0.0,14.0,35,-99.99,,,0.00,meteohub,2013-02-21 02:53:00,
2013-02-20 21:56:00,24.4,0.7,29.39,NW,321,4.0,14.0,35,-99.99,,,0.00,meteohub,2013-02-21 02:56:00,
2013-02-20 21:57:00,24.4,0.7,29.39,WNW,284,4.0,14.0,35,-99.99,,,0.00,meteohub,2013-02-21 02:57:00,
2013-02-20 21:58:00,24.4,0.7,29.39,NW,312,5.0,11.0,35,-99.99,,,0.00,meteohub,2013-02-21 02:58:00,
2013-02-20 21:59:00,24.4,0.7,29.39,West,281,5.0,11.0,35,-99.99,,,0.00,meteohub,2013-02-21 02:59:00,
2013-02-20 22:01:00,24.4,0.7,29.42,WNW,283,5.0,11.0,35,-99.99,,,0.00,meteohub,2013-02-21 03:01:00,
2013-02-20 22:05:00,24.4,0.7,29.42,SW,236,3.0,10.0,35,-99.99,,,0.00,meteohub,2013-02-21 03:05:00,
2013-02-20 22:06:00,24.4,1.2,29.42,West,273,5.0,10.0,36,-99.99,,,0.00,meteohub,2013-02-21 03:06:00,
2013-02-20 22:08:00,24.4,1.2,29.42,WNW,287,4.0,10.0,36,-99.99,,,0.00,meteohub,2013-02-21 03:08:00,
2013-02-20 22:10:00,24.4,1.2,29.42,NW,304,5.0,10.0,36,-99.99,,,0.00,meteohub,2013-02-21 03:10:00,
2013-02-20 22:12:00,24.4,1.2,29.42,NNW,330,0.0,10.0,36,-99.99,,,0.00,meteohub,2013-02-21 03:12:00,
2013-02-20 22:14:00,24.6,1.4,29.42,WNW,291,3.0,10.0,36,-99.99,,,0.00,meteohub,2013-02-21 03:14:00,
2013-02-20 22:16:00,24.6,1.4,29.42,NNW,342,0.0,10.0,36,-99.99,,,0.00,meteohub,2013-02-21 03:16:00,
2013-02-20 22:18:00,24.6,1.4,29.42,NNW,333,0.0,6.0,36,-99.99,,,0.00,meteohub,2013-02-21 03:18:00,
2013-02-20 22:19:00,24.6,1.4,29.42,WNW,287,6.0,6.0,36,-99.99,,,0.00,meteohub,2013-02-21 03:19:00,
2013-02-20 22:22:00,24.6,1.4,29.42,WNW,301,11.0,11.0,36,-99.99,,,0.00,meteohub,2013-02-21 03:22:00,
2013-02-20 22:24:00,24.6,1.4,29.42,South,191,4.0,6.0,36,-99.99,,,0.00,meteohub,2013-02-21 03:24:00,
2013-02-20 22:26:00,24.8,2.3,29.42,NW,322,6.0,6.0,37,-99.99,,,0.00,meteohub,2013-02-21 03:26:00,
2013-02-20 22:27:00,24.8,2.3,29.42,NW,315,4.0,6.0,37,-99.99,,,0.00,meteohub,2013-02-21 03:27:00,
2013-02-20 22:31:00,24.8,1.6,29.42,North,353,0.0,6.0,36,-99.99,,,0.00,meteohub,2013-02-21 03:31:00,
2013-02-20 22:33:00,25.0,1.8,29.42,NNW,329,4.0,11.0,36,-99.99,,,0.00,meteohub,2013-02-21 03:33:00,
2013-02-20 22:34:00,25.0,1.8,29.42,NW,311,0.0,11.0,36,-99.99,,,0.00,meteohub,2013-02-21 03:34:00,
2013-02-20 22:35:00,25.0,1.8,29.42,NNW,334,0.0,11.0,36,-99.99,,,0.00,meteohub,2013-02-21 03:35:00,
2013-02-20 22:39:00,25.0,1.8,29.42,NW,315,0.0,11.0,36,-99.99,,,0.00,meteohub,2013-02-21 03:39:00,
2013-02-20 22:40:00,25.2,1.9,29.42,WNW,283,3.0,11.0,36,-99.99,,,0.00,meteohub,2013-02-21 03:40:00,
2013-02-20 22:41:00,25.2,1.9,29.42,WNW,292,5.0,11.0,36,-99.99,,,0.00,meteohub,2013-02-21 03:41:00,
2013-02-20 22:42:00,25.2,1.9,29.42,WSW,243,4.0,11.0,36,-99.99,,,0.00,meteohub,2013-02-21 03:42:00,
2013-02-20 22:45:00,25.2,1.9,29.42,West,278,3.0,10.0,36,-99.99,,,0.00,meteohub,2013-02-21 03:45:00,
2013-02-20 22:47:00,25.2,1.9,29.42,SSW,212,0.0,10.0,36,-99.99,,,0.00,meteohub,2013-02-21 03:47:00,
2013-02-20 22:48:00,25.2,1.9,29.42,SW,217,4.0,10.0,36,-99.99,,,0.00,meteohub,2013-02-21 03:48:00,
2013-02-20 22:49:00,25.2,1.9,29.42,WNW,291,8.0,10.0,36,-99.99,,,0.00,meteohub,2013-02-21 03:49:00,
2013-02-20 22:51:00,25.2,1.9,29.42,WSW,252,2.0,10.0,36,-99.99,,,0.00,meteohub,2013-02-21 03:51:00,
2013-02-20 22:53:00,25.2,1.9,29.42,SW,234,3.0,10.0,36,-99.99,,,0.00,meteohub,2013-02-21 03:53:00,
2013-02-20 22:55:00,25.2,1.9,29.42,West,267,5.0,10.0,36,-99.99,,,0.00,meteohub,2013-02-21 03:55:00,
2013-02-20 22:56:00,25.3,2.1,29.42,SW,219,0.0,10.0,36,-99.99,,,0.00,meteohub,2013-02-21 03:56:00,
2013-02-20 22:57:00,25.3,2.1,29.42,SW,230,0.0,10.0,36,-99.99,,,0.00,meteohub,2013-02-21 03:57:00,
2013-02-20 22:58:00,25.3,2.1,29.42,NNW,327,0.0,8.0,36,-99.99,,,0.00,meteohub,2013-02-21 03:58:00,
2013-02-20 23:01:00,25.3,2.7,29.42,NW,325,5.0,8.0,37,-99.99,,,0.00,meteohub,2013-02-21 04:01:00,
2013-02-20 23:02:00,25.3,2.7,29.42,NNW,331,6.0,8.0,37,-99.99,,,0.00,meteohub,2013-02-21 04:02:00,
2013-02-20 23:04:00,25.3,2.7,29.42,WNW,291,2.0,8.0,37,-99.99,,,0.00,meteohub,2013-02-21 04:04:00,
2013-02-20 23:05:00,25.3,2.1,29.42,NW,324,4.0,8.0,36,-99.99,,,0.00,meteohub,2013-02-21 04:05:00,
2013-02-20 23:07:00,25.3,2.1,29.42,SSW,199,3.0,8.0,36,-99.99,,,0.00,meteohub,2013-02-21 04:07:00,
2013-02-20 23:08:00,25.3,2.1,29.42,West,275,4.0,8.0,36,-99.99,,,0.00,meteohub,2013-02-21 04:08:00,
2013-02-20 23:11:00,25.3,2.7,29.42,West,270,10.0,10.0,37,-99.99,,,0.00,meteohub,2013-02-21 04:11:00,
2013-02-20 23:12:00,25.3,2.7,29.42,WNW,297,6.0,8.0,37,-99.99,,,0.00,meteohub,2013-02-21 04:12:00,
2013-02-20 23:13:00,25.3,2.7,29.42,WNW,302,6.0,15.0,37,-99.99,,,0.00,meteohub,2013-02-21 04:13:00,
2013-02-20 23:14:00,25.3,2.1,29.42,SSW,193,6.0,15.0,36,-99.99,,,0.00,meteohub,2013-02-21 04:14:00,
2013-02-20 23:16:00,25.3,2.1,29.42,West,276,6.0,15.0,36,-99.99,,,0.00,meteohub,2013-02-21 04:16:00,
2013-02-20 23:18:00,25.3,2.7,29.42,WNW,292,3.0,10.0,37,-99.99,,,0.00,meteohub,2013-02-21 04:18:00,
2013-02-20 23:19:00,25.3,2.1,29.42,SW,226,4.0,10.0,36,-99.99,,,0.00,meteohub,2013-02-21 04:19:00,
2013-02-20 23:20:00,25.3,2.7,29.42,North,357,3.0,10.0,37,-99.99,,,0.00,meteohub,2013-02-21 04:20:00,
2013-02-20 23:22:00,25.3,2.7,29.42,NW,304,6.0,10.0,37,-99.99,,,0.00,meteohub,2013-02-21 04:22:00,
2013-02-20 23:23:00,25.5,2.8,29.42,SW,229,0.0,10.0,37,-99.99,,,0.00,meteohub,2013-02-21 04:23:00,
2013-02-20 23:26:00,25.5,2.8,29.42,West,260,5.0,10.0,37,-99.99,,,0.00,meteohub,2013-02-21 04:26:00,
2013-02-20 23:27:00,25.5,2.8,29.42,NNW,337,0.0,10.0,37,-99.99,,,0.00,meteohub,2013-02-21 04:27:00,
2013-02-20 23:29:00,25.5,2.8,29.42,NNW,329,6.0,10.0,37,-99.99,,,0.00,meteohub,2013-02-21 04:29:00,
2013-02-20 23:31:00,25.5,2.8,29.42,NW,324,3.0,10.0,37,-99.99,,,0.00,meteohub,2013-02-21 04:31:00,
2013-02-20 23:34:00,25.5,2.8,29.42,NW,321,0.0,13.0,37,-99.99,,,0.00,meteohub,2013-02-21 04:34:00,
2013-02-20 23:35:00,25.5,2.8,29.42,NW,321,0.0,13.0,37,-99.99,,,0.00,meteohub,2013-02-21 04:35:00,
2013-02-20 23:37:00,25.5,2.8,29.42,NW,323,2.0,13.0,37,-99.99,,,0.00,meteohub,2013-02-21 04:37:00,
2013-02-20 23:39:00,25.5,2.8,29.42,NNW,331,4.0,13.0,37,-99.99,,,0.00,meteohub,2013-02-21 04:39:00,
2013-02-20 23:41:00,25.5,2.8,29.42,WNW,302,4.0,13.0,37,-99.99,,,0.00,meteohub,2013-02-21 04:41:00,
2013-02-20 23:43:00,25.5,2.8,29.42,WNW,294,0.0,13.0,37,-99.99,,,0.00,meteohub,2013-02-21 04:43:00,
2013-02-20 23:44:00,25.5,2.8,29.42,North,357,3.0,13.0,37,-99.99,,,0.00,meteohub,2013-02-21 04:44:00,
2013-02-20 23:46:00,25.5,2.8,29.42,West,266,6.0,13.0,37,-99.99,,,0.00,meteohub,2013-02-21 04:46:00,
2013-02-20 23:47:00,25.5,2.3,29.42,WNW,290,6.0,13.0,36,-99.99,,,0.00,meteohub,2013-02-21 04:47:00,
2013-02-20 23:48:00,25.5,2.3,29.42,WNW,288,4.0,13.0,36,-99.99,,,0.00,meteohub,2013-02-21 04:48:00,
2013-02-20 23:51:00,25.5,2.8,29.42,WNW,301,4.0,13.0,37,-99.99,,,0.00,meteohub,2013-02-21 04:51:00,
2013-02-20 23:53:00,25.3,2.7,29.42,WNW,301,5.0,11.0,37,-99.99,,,0.00,meteohub,2013-02-21 04:53:00,
2013-02-20 23:54:00,25.3,2.7,29.42,SW,230,6.0,11.0,37,-99.99,,,0.00,meteohub,2013-02-21 04:54:00,
2013-02-20 23:55:00,25.3,2.7,29.42,WNW,283,2.0,11.0,37,-99.99,,,0.00,meteohub,2013-02-21 04:55:00,
2013-02-20 23:58:00,25.3,2.7,29.42,NW,318,4.0,8.0,37,-99.99,,,0.00,meteohub,2013-02-21 04:58:00,
2013-02-20 23:59:00,25.3,2.7,29.42,WNW,285,3.0,8.0,37,-99.99,,,0.00,meteohub,2013-02-21 04:59:00,